     2.10           OBSERVATION DATA    G (GPS)             RINEX VERSION / TYPE
teqc 2000Jul20 Karen Wendt 20040726 21:09:40UTC             PGM / RUN BY / DATE
Linux 2.0.36|Pentium II|gcc -static|Linux|486/DX+           COMMENT
teqc 2000Jul20 Karen Wendt 20040726 21:09:40UTC             COMMENT
BIT 2 OF LLI FLAGS DATA COLLECTED UNDER A/S CONDITION       COMMENT
cvr3 Covelo_No3_1942_USC&GS                                 MARKER NAME
CHS USGS                                                    OBSERVER / AGENCY
LP019992809 ASHTECH Z-XII3 CD00                             REC # / TYPE / VERS
CR520031626 ASH701945E_M NONE                               ANT # / TYPE
 -2691615.0000 -4105672.0000  4058738.0000                  APPROX POSITION XYZ
        1.3581        0.0000        0.0000                  ANTENNA: DELTA H/E/N
     1     1                                                WAVELENGTH FACT L1/2
     5    C1    L1    L2    P1    P2                        # / TYPES OF OBSERV
    30.0000                                                 INTERVAL
                                                            COMMENT
National Earthquake Hazard Reduction Program                COMMENT
Crustal Strain Project                                      COMMENT
345 Middlefield Road, MS/977                                COMMENT
U.S. Geological Survey, Menlo Park, California 94025        COMMENT
Contact: kwendt@usgs.gov (Ph: 650-329-4866)                 COMMENT
Antenna height is vertical to base of antenna               COMMENT
                                                            COMMENT
SNR is mapped to RINEX snr flag value [1-9]                 COMMENT
L1: 1 -> 1; 90 -> 5; 210 -> 9                               COMMENT
L2: 1 -> 1; 150 -> 5; 250 -> 9                              COMMENT
  2004     7    13    16    53    0.0000000     GPS         TIME OF FIRST OBS
                                                            END OF HEADER
 04  7 13 16 53  0.0000000  0  6G22G21G19G18G15G 3
  20786770.694       32221.23949     22713.13648  20786770.209    20786773.015
  22774934.259      197855.69849    143675.80346                  22774933.232
  22774939.371     -180647.15849   -126695.57243
  22106819.877      165418.64149    117569.27646                  22106817.688
  22106823.043       -2942.01549     -3603.79443
  21817723.010       55779.06749     39961.12447  21817723.385    21817729.369
 04  7 13 16 53 29.9990000  0  5G22G21G18G15G 3
  20489206.790       43929.17049     31836.19048  20489205.838    20489208.553
  22489306.689      272279.31849    201668.17846  22489303.539    22489309.225
  21817695.516      221486.40849    161258.44546  21817694.864    21817699.878
                     -3667.37749      -328.36247                  19907794.435
  21521660.048       75377.16249     55232.35347  21521660.254    21521666.305
 04  7 13 16 54  0.0000000  0  6G22G21G18G15G 3G14
  20587266.376    -1016183.97549   -794225.99248  20587265.513    20587268.265
  22599302.130     -725105.93449   -575515.16446  22599300.119    22599305.596
  21924175.981     -794377.42149   -630323.79846  21924175.119    21924179.974
  20003515.489    -1076042.22549   -835945.13748  20003514.605    20003520.735
  21621275.639     -976567.81249   -764465.06847                  21621274.443
  21621280.302    -1269433.84349   -971026.14343
 04  7 13 16 54 30.0000000  0  6G22G21G18G15G 3G14
  20591207.820     -995470.58949   -778085.69648  20591207.184    20591210.007
  22615181.839     -641655.51249   -510488.92446  22615180.157    22615185.569
  21936516.674     -729527.54749   -579791.46646  21936515.736    21936520.578
  20005156.826    -1067416.81849   -829224.04548  20005155.849    20005162.073
  21626823.942     -947409.17549   -741744.05947                  21626823.112
  21626829.169    -1336889.60349   -839654.53645                  21072620.517
 04  7 13 16 55  0.0000000  0  6G22G21G18G15G 3G14
  20595199.052     -974496.27649   -761742.08348  20595198.491    20595201.402
  22631113.399     -557932.96249   -445250.63046  22631112.156    22631117.233
  21948885.697     -664528.57449   -529142.95646  21948884.794    21948889.574
  20006881.214    -1058354.96249   -822162.86048  20006880.305    20006886.373
  21632475.058     -917712.68549   -718603.96347  21632474.180    21632480.411
  21059868.483    -1403875.40449   -891851.27447  21059867.667    21059872.945
 04  7 13 16 55 30.0000000  0  6G22G21G18G15G 3G14
  20599239.647     -953262.97349   -745196.65548  20599239.094    20599242.042
  22647096.822     -473940.32849   -379801.88346  22647095.522    22647100.728
  21961282.114     -599382.05149   -478379.48645  21961278.393    21961285.997
  20008688.689    -1048856.73549   -814761.65148  20008687.793    20008693.758
  21638228.072     -887480.43749   -695046.40147  21638227.257    21638233.471
  21047211.167    -1470390.32449   -943681.04447  21047210.599    21047215.453
 04  7 13 16 56  0.0000000  0  7G22G21G18G19G15G 3G14
  20603329.836     -931768.61249   -728447.80548  20603329.342    20603332.378
  22663131.591     -389675.91749   -314141.33746  22663130.460    22663136.011
  21973707.278     -534086.28749   -427499.76945  21973705.418    21973712.332
                  -1083909.58449   -829898.67346                  22591774.016
  20010579.931    -1038918.78749   -807017.78848  20010578.974    20010584.881
  21644083.188     -856711.16549   -671070.36347  21644082.374    21644088.642
  21034644.164    -1536430.42349   -995140.83847  21034643.599    21034648.485
 04  7 13 16 56 30.0000000  0  7G22G21G18G19G15G 3G14
  20607468.836     -910017.75549   -711499.09548  20607468.347    20607471.430
  22679217.621     -305143.90049   -248272.31446  22679216.594    22679221.715
  21986160.627     -468645.97149   -376507.34845  21986159.478    21986165.353
  22581471.050    -1138030.95849   -872071.18346  22581470.264    22581475.252
  20012554.332    -1028543.83249   -798933.41948  20012553.388    20012559.258
  21650039.432     -825409.82849   -646679.72847  21650038.780    21650045.194
  21022167.165    -1601997.40349  -1046231.95747  21022166.567    21022171.477
 04  7 13 16 57  0.0000000  0  7G22G21G18G19G15G 3G14
  20611656.553     -888010.63949   -694350.69548  20611656.167    20611659.243
  22695354.625     -220344.13349   -182194.60846  22695353.563    22695358.775
  21998640.865     -403061.14849   -325402.27045  21998639.878    21998645.707
  22571267.778    -1191651.77449   -913853.63446  22571266.667    22571271.061
  20014612.050    -1017730.30849   -790507.30348  20014611.153    20014617.045
  21656097.054     -793577.21249   -621875.12647  21656096.386    21656102.787
  21009780.633    -1667088.76049  -1096952.47647  21009780.032    21009785.114
 04  7 13 16 57 30.0000000  0  7G22G21G18G19G15G 3G14
  20615893.027     -865748.92249   -677003.90148  20615892.545    20615895.564
  22711541.935     -135278.70449   -115909.89746  22711541.087    22711546.512
  22011148.747     -337333.57149   -274185.97145  22011147.869    22011153.163
  22561159.610    -1244771.11949   -955245.30346  22561158.405    22561162.716
  20016753.378    -1006478.46949   -781739.65048  20016752.421    20016758.289
  21662255.582     -761215.45449   -596658.19847  21662254.743    21662260.980
  20997484.799    -1731703.90149  -1147301.90047  20997484.184    20997489.195
 04  7 13 16 58  0.0000000  0  7G22G21G18G19G15G 3G14
  20620176.709     -843237.49849   -659462.53848  20620176.299    20620179.204
  22727779.279      -49951.94949    -49421.58346  22727778.197    22727783.607
  22023682.521     -271467.97649   -222862.07445  22023681.772    22023686.816
  22551146.119    -1297391.11949   -996247.85446  22551145.097    22551149.627
  20018977.316     -994791.47149   -772632.89148  20018976.361    20018982.232
  21668513.518     -728330.10049   -571033.27447  21668512.691    21668518.793
  20985279.115    -1795845.14649  -1197282.07347  20985278.494    20985283.523
 04  7 13 16 58 30.0000000  0  7G22G21G18G19G15G 3G14
  20624508.904     -820472.38449   -641723.49248  20624508.460    20624511.330
  22744066.635       35639.61849     17273.08246  22744065.770    22744071.218
  22036242.670     -205460.43649   -171427.55445  22036242.106    22036247.445
  22541229.506    -1349504.96049  -1036856.04446  22541228.282    22541232.663
  20021285.230     -982663.43849   -763182.48148  20021284.313    20021290.082
  21674871.813     -694917.39749   -544997.43147  21674870.998    21674876.998
  20973164.765    -1859505.75549  -1246887.72547  20973164.211    20973169.223
 04  7 13 16 59  0.0000000  0  7G22G21G18G19G15G 3G14
  20628889.169     -797453.80349   -623786.94248  20628888.728    20628891.534
  22760404.888      121496.05849     84174.15446  22760403.840    22760409.086
  22048830.999     -139310.99549   -119882.50245  22048830.332    22048835.213
  22531409.680    -1401110.28849  -1077067.99346  22531408.200    22531412.405
  20023677.368     -970093.01949   -753387.35448  20023676.427    20023682.192
  21681330.388     -660978.45849   -518551.54347  21681329.548    21681335.284
  20961142.393    -1922683.89649  -1296117.41747  20961141.873    20961146.785
 04  7 13 16 59 30.0000000  0  7G22G21G18G19G15G 3G14
  20633317.229     -774183.59349   -605654.31648  20633316.852    20633319.705
  22776793.150      207615.87549    151280.46546  22776792.105    22776797.403
  22061445.645      -73021.52849    -68228.42845  22061445.027    22061450.085
  22521686.539    -1452205.82649  -1116882.69646  22521685.072    22521689.220
  20026153.574     -957080.24149   -743247.52548  20026152.673    20026158.569
  21687888.300     -626515.29249   -491697.13647  21687887.538    21687893.529
  20949212.089    -1985378.46049  -1344970.30047  20949211.523    20949216.493
 04  7 13 17  0  0.0000000  0  7G22G21G18G19G15G 3G14
  20637793.918     -750658.73649   -587323.26848  20637793.533    20637796.424
  22793231.515      294001.60249    218593.96846  22793230.674    22793236.016
  22074087.685       -6589.44349    -16463.25745  22074086.918    22074091.503
  22512061.332    -1502786.30649  -1156296.04347  22512060.015    22512064.243
  20028714.776     -943620.74449   -732759.62548  20028713.830    20028719.832
  21694546.626     -591525.83649   -464432.66147  21694545.858    21694551.887
  20937374.610    -2047584.41849  -1393442.45347  20937374.097    20937378.986
 04  7 13 17  0 30.0000000  0  7G22G21G18G19G15G 3G14
  20642318.714     -726880.82549   -568795.03748  20642318.291    20642321.196
  22809721.033      380651.95449    286113.64746  22809719.930    22809724.975
  22086756.541       59983.90849     35411.96145  22086755.965    22086760.040
  22502534.765    -1552850.49149  -1195307.11647  22502533.320    22502537.342
  20031361.030     -929714.35649   -721923.48848  20031360.138    20031366.197
  21701304.476     -556012.16149   -436759.69047  21701303.861    21701310.071
  20925630.485    -2109300.85449  -1441533.16248  20925629.898    20925634.799
 04  7 13 17  1  0.0000000  0  7G22G21G18G19G15G 3G14
  20646890.705     -702854.65149   -550073.33648  20646890.375    20646893.329
  22826259.446      467562.46249    353836.07746  22826258.420    22826263.588
  22099451.052      126694.08249     87393.76145  22099451.018    22099454.673
  22493105.895    -1602400.33549  -1233917.39146  22493104.437    22493108.217
  20034091.806     -915364.33949   -710741.66048  20034090.897    20034096.891
  21708161.030     -519979.57549   -408682.37347  21708160.573    21708166.956
  20913978.977    -2170530.06949  -1489244.22548  20913978.364    20913983.262
 04  7 13 17  1 30.0000000  0  7G22G21G18G19G15G 3G14
  20651510.295     -678579.57849   -531157.70648  20651509.847    20651512.921
  22842847.493      554733.40049    421761.43946  22842846.496    22842851.755
  22112172.447      193541.67949    139482.68245  22112171.624    22112175.494
  22483775.342    -1651432.58249  -1272124.32246  22483773.769    22483777.728
  20036907.494     -900568.53349   -699212.46648  20036906.538    20036912.451
  21715116.795     -483428.09149   -380200.73647  21715116.178    21715122.538
  20902420.775    -2231268.89749  -1536573.16948  20902420.136    20902425.137
 04  7 13 17  2  0.0000000  0  7G22G21G18G19G15G 3G14
  20656176.944     -654055.63949   -512048.15648  20656176.596    20656179.684
  22859485.249      642165.06749    489889.93446  22859484.398    22859489.642
  22124919.415      260526.36948    191678.70445  22124918.397    22124922.163
  22474543.038    -1699944.94249  -1309926.11246  22474541.798    22474546.211
  20039808.231     -885325.41649   -687334.72248  20039807.320    20039813.060
  21722170.834     -446358.64649   -351315.48747  21722170.255    21722176.654
  20890956.375    -2291515.18349  -1583518.30648  20890955.682    20890960.601
 04  7 13 17  2 30.0000000  0  7G22G21G18G19G15G 3G14
  20660890.998     -629284.05349   -492745.61748  20660890.613    20660893.635
  22876172.356      729855.58649    558220.15746  22876171.266    22876176.795
  22137691.971      327647.08549    243980.76644  22137693.273    22137693.645
  22465410.698    -1747935.99149  -1347321.73046  22465409.470    22465413.810
  20042794.191     -869634.65849   -675108.16848  20042793.243    20042798.892
  21729323.035     -408773.11949   -322028.08847  21729322.583    21729329.147
  20879585.812    -2351268.01549  -1630078.94748  20879585.114    20879590.112
 04  7 13 17  3  0.0000000  0  7G22G21G18G19G15G 3G14
  20665652.250     -604263.70549   -473249.26248  20665651.887    20665654.903
  22892908.387      817806.08349    626752.97246  22892907.700    22892913.226
  22150491.559      394904.93648    296389.48944  22150492.497    22150496.066
  22456378.157    -1795401.97649  -1384308.22246  22456377.034    22456381.235
  20045865.754     -853493.74749   -662530.83548  20045864.767    20045870.349
  21736573.902     -370671.26049   -292338.37747  21736573.303    21736579.647
  20868309.757    -2410524.01449  -1676252.43648  20868309.090    20868314.048
 04  7 13 17  3 30.0000000  0  7G22G21G18G19G15G 3G14
  20670459.613     -579001.32749   -453564.28948  20670459.229    20670462.225
  22909693.335      906009.89449    695483.14145  22909692.509    22909697.676
  22163313.449      462293.40549    348899.90944  22163313.379    22163319.526
  22447444.876    -1842347.16149  -1420888.88747  22447443.788    22447447.879
  20049021.978     -836907.80149   -649606.73848  20049020.972    20049026.588
  21743921.069     -332060.70749   -262252.25647  21743920.617    21743926.920
  20857127.356    -2469287.74349  -1722042.34048  20857126.732    20857131.691
 04  7 13 17  4  0.0000000  0  7G22G21G18G19G15G 3G14
  20675314.169     -553490.75649   -433685.92948  20675313.768    20675316.755
  22926527.587      994473.35449    764415.66745  22926526.476    22926531.651
  22176163.028      529818.64749    401516.88445  22176162.672    22176168.957
  22438612.439    -1888762.79649  -1457056.90947  22438611.312    22438615.396
  20052264.356     -819868.96049   -636329.72648  20052263.367    20052269.051
  21751366.205     -292935.92149   -231765.43247  21751365.902    21751372.220
  20846040.311    -2527550.46149  -1767441.85348  20846039.647    20846044.724
 04  7 13 17  4 30.0000000  0  7G22G21G18G19G15G 3G14
  20680214.581     -527739.24349   -413619.82648  20680214.185    20680217.161
  22943409.137     1083189.18549    833544.83546  22943408.309    22943413.884
  22189036.760      597473.40449    454234.77744  22189036.410    22189043.300
  22429879.876    -1934653.30749  -1492815.73347  22429878.748    22429882.745
  20055591.877     -802382.90749   -622704.24548  20055590.873    20055596.624
  21758908.049     -253304.86749   -200884.12747  21758907.502    21758913.737
  20835047.697    -2585317.10249  -1812454.80548  20835047.027    20835052.021
 04  7 13 17  5  0.0000000  0  8G22G21G 9G18G19G15G 3G14
  20685160.982     -501745.77649   -393365.17848  20685160.561    20685163.519
  22960339.602     1172157.90449    902871.06346  22960338.768    22960344.387
                   -868571.75749   -675324.27143
  22201936.009      665258.58349    507054.29844  22201935.929    22201941.923
  22421247.798    -1980015.41949  -1528162.80147  22421246.713    22421250.688
  20059004.873     -784447.48149   -608728.60448  20059003.890    20059009.658
  21766545.954     -213167.31849   -169608.14047  21766545.504    21766551.802
  20824150.122    -2642584.55149  -1857078.77248  20824149.481    20824154.344
 04  7 13 17  5 30.0000000  0  8G22G21G 9G18G19G15G 3G14
  20690152.934     -475512.97649   -372924.03248  20690152.535    20690155.354
  22977317.564     1261376.68249    972392.12346  22977316.684    22977322.417
                   -871000.17749   -677216.22744                  23447430.228
  22214859.754      733171.54348    559973.49644  22214859.354    22214864.282
  22412716.512    -2024849.46349  -1563098.42447  22412715.180    22412719.133
  20062503.285     -766063.72749   -594403.60948  20062502.289    20062508.058
  21774279.649     -172526.96749   -137940.37547  21774279.210    21774285.529
  20813347.424    -2699353.28849  -1901314.14148  20813346.740    20813351.732
 04  7 13 17  6  0.0000000  0  8G22G21G 9G18G19G15G 3G14
  20695190.439     -449040.18349   -352295.90748  20695190.018    20695193.060
  22994343.176     1350846.58949   1042108.87046  22994342.179    22994347.665
  23447080.650     -872821.81549   -678635.64745  23447080.314    23447085.123
  22227806.865      801213.39149    612993.18844  22227806.299    22227812.266
  22404285.806    -2069152.18349  -1597620.02047  22404284.527    22404288.554
  20066087.347     -747229.48749   -579727.59448  20066086.377    20066092.147
  21782108.969     -131383.74749   -105880.75047  21782108.500    21782114.904
  20802640.154    -2755620.42649  -1945158.64348  20802639.432    20802644.378
 04  7 13 17  6 30.0000000  0  8G22G21G 9G18G19G15G 3G14
  20700273.978     -422326.42049   -331479.98248  20700273.568    20700276.487
  23011416.652     1440568.44949   1112021.90145  23011415.799    23011421.087
  23446848.665     -874034.07249   -679580.27245  23446848.515    23446854.906
  22240780.064      869385.17149    666114.04845  22240779.557    22240785.291
  22395956.987    -2112920.04849  -1631724.88147  22395955.803    22395959.708
  20069757.545     -727942.16749   -564698.52048  20069756.626    20069762.411
  21790034.014      -89737.64849    -73429.27047  21790033.593    21790040.100
  20792028.895    -2811382.76249  -1988609.80448  20792028.169    20792033.197
 04  7 13 17  7  0.0000000  0  8G22G21G 9G18G19G15G 3G14
  20705402.785     -395374.38849   -310478.41348  20705402.318    20705405.312
  23028537.713     1530539.41149   1182129.12046  23028536.934    23028542.268
  23446732.507     -874637.87749   -680050.80145  23446732.996    23446739.794
  22253777.361      937684.10549    719333.86645  22253776.622    22253782.204
  22387729.922    -2156153.66349  -1665413.39447  22387728.668    22387732.791
  20073513.955     -708203.28749   -549317.59048  20073512.936    20073518.687
  21798054.296      -47592.50549    -40588.93447  21798053.741    21798060.231
  20781513.623    -2866641.01849  -2031668.17148  20781512.908    20781517.956
 04  7 13 17  7 30.0000000  0  8G22G21G 9G18G19G15G 3G14
  20710576.832     -368184.52649   -289291.52748  20710576.416    20710579.373
  23045706.664     1620758.87849   1252429.89946  23045705.460    23045710.512
  23446734.186     -874632.26349   -680046.47344  23446734.234    23446739.953
  22266798.028     1006109.75549    772652.42045  22266797.316    22266803.170
  22379604.662    -2198850.97449  -1698684.00347  22379603.623    22379607.886
  20077356.239     -688011.97949   -533584.11248  20077355.216    20077361.064
  21806169.098       -4949.68749     -7360.80347  21806168.443    21806174.829
  20771094.563    -2921393.37249  -2074332.33348  20771093.921    20771098.809
 04  7 13 17  8  0.0000000  0  8G22G21G 9G18G19G15G 3G14
  20715795.951     -340757.86449   -267920.11048  20715795.533    20715798.439
  23062921.491     1711225.71449   1322923.46946  23062920.493    23062925.928
  23446851.830     -874016.56649   -679566.70044  23446851.501    23446857.319
  22279843.696     1074661.21749    826069.11445  22279842.935    22279847.887
  22371582.112    -2241010.49349  -1731535.57247  22371581.086    22371585.270
  20081284.484     -667367.77749   -517497.73548  20081283.576    20081289.567
  21814378.127       38188.93249     26253.67647  21814377.491    21814383.853
  20760771.978    -2975638.86449  -2116601.54148  20760771.307    20760776.251
 04  7 13 17  8 30.0000000  0  8G22G21G 9G18G19G15G 3G14
  20721059.897     -313095.85849   -246365.30548  20721059.479    20721062.344
  23080183.250     1801938.14649   1393608.39846  23080182.482    23080188.011
  23447084.857     -872790.70849   -678611.53544  23447084.612    23447091.018
  22292912.247     1143337.34749    879582.97945  22292911.389    22292916.417
  22363662.123    -2282631.30649  -1763967.38547  22363661.000    22363664.962
  20085299.308     -646270.57549   -501058.36348  20085298.307    20085304.364
  21822681.253       81821.05849     60252.68747  21822680.473    21822686.654
  20750546.118    -3029376.75849  -2158475.19948  20750545.367    20750550.277
 04  7 13 17  9  0.0000000  0  8G22G21G 9G18G19G15G 3G14
  20726368.782     -285198.28149   -224626.95248  20726368.324    20726371.150
  23097492.062     1892895.87749   1464484.49446  23097491.219    23097496.658
  23447434.887     -870953.39549   -677179.88344  23447434.430    23447440.787
  22306004.949     1212138.21049    933194.00545  22306004.154    22306008.698
  22355845.039    -2323711.15249  -1795977.66547  22355843.851    22355847.701
  20089400.384     -624719.17749   -484265.09148  20089399.408    20089405.446
  21831077.646      125945.40749     94635.27247  21831077.049    21831083.146
  20740417.109    -3082604.95749  -2199951.70148  20740416.408    20740421.235
 04  7 13 17  9 30.0000000  0  8G22G21G 9G18G19G15G 3G14
  20731721.903     -257067.13449   -202706.58648  20731721.468    20731724.408
  23114847.197     1984097.04249   1535550.27546  23114846.175    23114851.767
  23447900.627     -868505.19649   -675272.20345  23447900.117    23447907.660
  22319120.353     1281061.68049    986900.59145  22319119.953    22319124.293
  22348131.068    -2364249.82149  -1827566.21447  22348129.671    22348133.610
  20093587.763     -602714.17549   -467118.33648  20093586.799    20093592.887
  21839567.524      170559.31349    129399.32247  21839566.793    21839572.896
  20730385.128    -3135323.61349  -2241031.15848  20730384.443    20730389.187
 04  7 13 17 10  0.0000000  0  8G22G21G 9G18G19G15G 3G14
  20737119.630     -228701.96349   -180603.86448  20737119.172    20737122.172
  23132248.534     2075542.16549   1606806.11046  23132247.798    23132253.401
  23448483.335     -865444.01549   -672886.73645  23448482.763    23448489.778
  22332259.333     1350108.64048   1040703.48744  22332259.187    22332262.741
  22340520.357    -2404244.32549  -1858730.77247  22340519.090    22340522.823
  20097862.033     -580253.42649   -449616.47648  20097861.000    20097866.889
  21848150.293      215662.01949    164544.24447  21848149.700    21848155.590
  20720450.638    -3187530.02849  -2281711.46448  20720449.981    20720454.682
 04  7 13 17 10 30.0000000  0  8G22G21G 9G18G19G15G 3G14
  20742561.501     -200104.24549   -158319.94048  20742561.124    20742564.140
  23149696.087     2167229.59249   1678250.76546  23149695.338    23149700.869
  23449182.170     -861770.02248   -670023.83244  23449181.483    23449189.346
  22345421.747     1419277.50649   1094601.32144  22345421.475    22345424.989
  22333013.389    -2443693.85649  -1889470.67047  22333012.048    22333015.867
  20102222.815     -557337.29449   -431759.75948  20102221.822    20102227.746
  21856825.635      261251.12049    200068.18547  21856825.025    21856830.813
  20710613.671    -3239223.85549  -2321992.35848  20710613.011    20710617.707
 04  7 13 17 11  0.0000000  0  8G22G21G 9G18G19G15G 3G14
  20748047.718     -171274.54749   -135855.25448  20748047.266    20748050.312
  23167189.996     2259158.20749   1749883.40146  23167189.119    23167194.543
  23449997.579     -857482.29948   -666682.74844  23449995.277    23450006.356
  22358606.963     1488567.83648   1148593.74244  22358607.090    22358610.994
  22325610.371    -2482596.84949  -1919784.70347  22325609.013    22325612.748
  20106670.270     -533965.22849   -413547.76948  20106669.302    20106675.299
  21865593.405      307324.87449    235969.76947  21865592.655    21865598.520
  20700874.479    -3290403.56649  -2361872.63048  20700873.893    20700878.527
 04  7 13 17 11 30.0000000  0  8G22G21G 9G18G19G15G 3G14
  20753577.869     -142213.18349   -113210.06148  20753577.437    20753580.521
  23184729.246     2351327.42849   1821703.47445  23184728.367    23184733.702
  23450930.597     -852579.91649   -662862.76744  23450930.636    23450937.327
  22371814.868     1557979.39749   1202680.52544  22371814.485
  22318311.378    -2520951.64249  -1949671.54947  22318310.235    22318313.958
  20111204.825     -510136.37449   -394979.84048  20111203.823    20111209.845
  21874452.757      353881.88749    272247.92747  21874452.202    21874458.304
  20691233.391    -3341067.64049  -2401351.11748  20691232.768    20691237.500
 04  7 13 17 12  0.0000000  0  8G22G21G 9G18G19G15G 3G14
  20759151.846     -112922.27949    -90385.98048  20759151.408    20759154.408
  23202313.617     2443735.00849   1893709.30945  23202312.964    23202318.363
  23451980.846     -847063.84249   -658564.42845  23451980.891    23451988.204
  22385046.395     1627510.31949   1256860.34244  22385046.283    22385051.716
  22311117.146    -2558757.87749  -1979130.95447  22311115.956    22311119.727
  20115826.017     -485851.36149   -376056.46248  20115825.064    20115831.086
  21883403.557      400919.13449    308900.27547  21883403.045    21883409.193
  20681690.425    -3391215.98549  -2440427.72948  20681689.844    20681694.499
 04  7 13 17 12 30.0000000  0  8G22G21G 9G18G19G15G 3G14
  20764769.244      -83402.98349    -67383.93348  20764768.750    20764771.715
  23219943.861     2536379.54249   1965899.76545  23219942.767    23219948.140
  23453147.779     -840936.18957   -653789.48844  23453147.893    23453154.495
  22398300.892     1697159.09549   1311132.09745  22398300.589    22398306.276
  22304027.077    -2596014.88349  -2008162.37247  22304026.024    22304029.954
  20120534.219     -461110.29049   -356777.72448  20120533.284    20120539.221
  21892445.154      448433.93549    345924.75447  21892444.766    21892451.270
  20672245.831    -3440848.17649  -2479102.15348  20672245.093    20672249.873
 04  7 13 17 13  0.0000000  0  7G22G21G18G19G15G 3G14
  20770429.499      -53657.97149    -44206.03048  20770429.041    20770432.091
  23237618.126     2629258.45149   2038272.88645  23237617.083    23237622.509
  22411576.548     1766923.49349   1365493.96144  22411576.189    22411581.591
  22297042.056    -2632722.98249  -2036766.09847  22297040.829    22297044.771
  20125328.963     -435914.35849   -337144.55048  20125328.005    20125333.862
  21901577.110      496422.45349    383318.35447  21901576.744    21901583.296
  20662899.124    -3489964.76449  -2517374.79648  20662898.503    20662903.224
 04  7 13 17 13 30.0000000  0  7G22G21G18G19G15G 3G14
  20776133.573      -23683.19349    -20849.08248  20776133.092    20776136.216
  23255337.301     2722375.04449   2110831.21645  23255336.555    23255342.145
  22424875.013     1836807.55649   1419949.05044  22424874.731    22424879.582
  22290162.760    -2668875.95949  -2064937.26347  22290161.323    22290165.151
  20130211.173     -410258.37049   -317152.87948  20130210.225    20130216.163
  21910799.801      544887.64149    421083.38947  21910799.369    21910805.979
  20653651.752    -3538560.13149  -2555241.30448  20653651.065    20653655.885
 04  7 13 17 14  0.0000000  0  7G22G21G18G19G15G 3G14
  20781880.742        6518.05449      2684.36248  20781880.273    20781883.253
  23273101.638     2815725.92749   2183572.07245  23273100.757    23273106.104
  22438196.070     1906808.14749   1474494.97145  22438195.781    22438200.480
  22283388.205    -2704475.28949  -2092676.97947  22283386.972    22283390.911
  20135180.454     -384144.44949   -296804.38448  20135179.485    20135185.468
  21920111.998      593824.85149    459216.25947  21920111.722    21920118.359
  20644503.163    -3586635.98049  -2592702.98848  20644502.468    20644507.360
 04  7 13 17 14 30.0000000  0  7G22G21G18G19G15G 3G14
  20787670.986       36945.78849     26394.26248  20787670.495    20787673.572
  23290909.727     2909310.59849   2256495.12645  23290909.119    23290914.708
  22451538.929     1976925.21949   1529131.67145  22451538.474    22451542.956
  22276719.688    -2739518.81949  -2119983.66147  22276718.489    22276722.192
  20140237.052     -357571.57549   -276098.26048  20140236.105    20140242.106
  21929514.305      643232.95949    497716.03747  21929513.863    21929520.275
  20635453.837    -3634190.43349  -2629758.38848  20635453.173    20635458.102
 04  7 13 17 15  0.0000000  0  7G22G21G18G19G15G 3G14
  20793503.961       67598.08849     50279.14848  20793503.517    20793506.619
  23308763.107     3003127.49949   2329599.07845  23308762.219    23308767.358
  22464903.631     2047157.33449   1583857.98945  22464903.092    22464908.114
  22270156.943    -2774006.35649  -2146857.07547  22270155.702    22270159.438
  20145380.915     -330540.05749   -255034.75948  20145380.053    20145385.967
  21939005.478      693108.75749    536580.24847  21939005.012    21939011.365
  20626503.828    -3681223.18149  -2666407.26448  20626503.119    20626507.964
 04  7 13 17 15 30.0000000  0  7G22G21G18G19G15G 3G14
  20799379.678       98474.73149     74338.86848  20799379.199    20799382.248
  23326659.722     3097175.29049   2402883.03845  23326658.960    23326664.554
  22478290.380     2117504.08949   1638673.52745  22478289.733    22478294.639
  22263700.295    -2807936.26249  -2173295.97147  22263699.112    22263702.804
  20150612.488     -303049.22749   -233613.35048  20150611.502    20150617.411
  21948585.515      743450.91849    575807.85347  21948584.951    21948591.168
  20617653.384    -3727733.06049  -2702648.70648  20617652.596    20617657.463
 04  7 13 17 16  0.0000000  0  7G22G21G18G19G15G 3G14
  20805298.024      129575.65349     98573.32248  20805297.562    20805300.631
  23344600.449     3191453.88749   2476346.80145  23344599.789    23344605.280
  22491698.908     2187965.47749   1693578.42745  22491698.251    22491702.995
  22257350.026    -2841306.68049  -2199298.88447  22257348.828    22257352.639
  20155931.391     -275098.21349   -211833.36348  20155930.460    20155936.223
  21958253.483      794257.70549    615397.52847  21958253.108    21958259.439
  20608902.599    -3773718.45249  -2738481.47248  20608901.884    20608906.801
 04  7 13 17 16 30.0000000  0  7G22G21G18G19G15G 3G14
  20811258.736      160899.34249    122981.38348  20811258.285    20811261.278
  23362584.927     3285961.81049   2549989.23445  23362584.190    23362589.564
  22505128.657     2258540.33549   1748571.72445  22505128.094    22505133.078
  22251106.313    -2874116.83849  -2224865.24347  22251105.231    22251109.024
  20161337.828     -246687.35149   -189695.04548  20161336.867    20161342.655
  21968009.805      845526.62449    655347.28647  21968009.333    21968015.734
  20600251.784    -3819178.88349  -2773905.17648  20600251.073    20600256.017
 04  7 13 17 17  0.0000000  0  7G22G21G18G19G15G 3G14
  20817261.647      192444.05749    147561.68048  20817261.150    20817263.961
  23380612.339     3380696.41749   2623808.28645  23380611.499    23380616.999
  22518579.983     2329226.62249   1803651.89645  22518579.262    22518584.335
  22244969.145    -2906366.91349  -2249995.17347  22244968.129    22244972.014
  20166831.572     -217817.51849   -167199.07248  20166830.614    20166836.543
  21977853.447      897254.48249    695654.66147  21977852.840    21977859.297
  20591700.674    -3864114.66149  -2808920.05148  20591700.073    20591704.890
 04  7 13 17 17 30.0000000  0  7G22G21G18G19G15G 3G14
  20823306.413      224209.50849    172313.94448  20823305.945    20823308.693
  23398682.992     3475657.26649   2697803.65245  23398682.170    23398687.444
  22532052.446     2400024.55549   1858819.12445  22532051.686    22532056.901
  22238939.391    -2938055.15649  -2274687.33747  22238938.233    22238942.188
  20172412.904     -188487.56949   -144344.59048  20172411.930    20172417.810
  21987784.030      949439.88149    736318.55247  21987783.583    21987789.864
  20583249.846    -3908524.51949  -2843525.11248  20583249.213    20583253.920
 04  7 13 17 18  0.0000000  0  7G22G21G18G19G15G 3G14
  20829392.968      256195.12249    197237.78548  20829392.512    20829395.368
  23416796.494     3570843.62349   2771974.74445  23416795.689    23416801.091
  22545545.741     2470933.51549   1914072.87645  22545545.114    22545550.154
  22233016.562    -2969180.19349  -2298940.58847  22233015.284    22233019.405
  20178081.951     -158696.97849   -121131.16948  20178080.995    20178086.868
  21997801.406     1002080.86249    777337.46947  21997800.859    21997807.098
  20574899.182    -3952407.08849  -2877719.31248  20574898.574    20574903.373
 04  7 13 17 18 30.0000000  0  8G22G21G 9G18G19G15G 3G14
  20835521.291      288400.37649    222332.78748  20835520.859    20835523.851
  23434952.552     3666254.60549   2846320.83845  23434951.780    23434957.330
                   -599805.15949   -467940.08443
  22559060.672     2541953.39349   1969413.03945  22559059.878    22559064.850
  22227200.797    -2999741.02349  -2322754.23547  22227199.680    22227203.868
  20183838.519     -128445.73749    -97558.79148  20183837.560    20183843.545
  22007904.999     1055174.97149    818709.45347  22007904.395    22007910.593
  20566649.133    -3995761.66049  -2911502.08348  20566648.505    20566653.298
 04  7 13 17 19  0.0000000  0  7G22G21G18G19G15G 3G14
  20841691.267      320824.08149    247598.00648  20841690.877    20841693.932
  23453150.709     3761888.29749   2920840.51445  23453150.122    23453155.818
  22572595.982     2613082.75049   2024838.45145  22572595.317    22572600.368
  22221492.580    -3029737.05049  -2346127.76947  22221491.512    22221495.862
  20189682.786      -97733.87149    -73627.48548  20189681.834    20189687.800
  22018094.359     1108719.79849    860432.65947  22018093.641    22018099.846
  20558499.710    -4038587.76549  -2944873.05548  20558498.998    20558503.756
 04  7 13 17 19 30.0000000  0  7G22G21G18G19G15G 3G14
  20847903.014      353465.93049    273033.19948  20847902.587    20847905.524
  23471391.886     3857744.01049   2995533.19245  23471391.242    23471397.062
  22586152.454     2684321.71649   2080349.24945  22586151.774    22586156.626
  22215892.473    -3059166.25349  -2369059.61247  22215891.368    22215895.740
  20195614.909      -66560.47649    -49336.54648  20195613.967    20195619.872
  22028369.285     1162713.98649    902505.99047  22028368.478    22028374.637
  20550451.007    -4080884.17349  -2977831.29048  20550450.299    20550455.123
 04  7 13 17 20  0.0000000  0  8G22G21G 9G18G19G15G 3G14
  20854155.623      386323.52049    298636.47948  20854155.119    20854158.105
  23489674.832     3953819.35549   3070396.99145  23489673.928    23489679.603
                   -555525.82849   -447568.64343
  22599728.688     2755667.73749   2135943.57045  22599728.143    22599733.430
  22210400.335    -3088029.41349  -2391550.40247  22210399.180    22210403.272
  20201634.636      -34927.04549    -24687.14448  20201633.680    20201639.460
  22038728.856     1217153.61949    944926.44947  22038728.126    22038734.262
  20542503.031    -4122651.59949  -3010377.32448  20542502.252    20542507.053
 04  7 13 17 20 30.0000000  0  7G22G21G18G19G15G 3G14
  20860449.138      419395.83449    324407.10148  20860448.711    20860451.634
  23507998.079     4050112.63649   3145430.62445  23507997.652    23508003.849
  22613326.225     2827119.99049   2191620.52345  22613325.600    22613330.260
  22205015.845    -3116326.17749  -2413599.83047  22205014.488    22205018.558
  20207741.861       -2833.82349       320.54548  20207740.862    20207746.655
  22049172.864     1272035.66949    987691.63547  22049171.976    22049178.091
  20534655.580    -4163889.62049  -3042510.82848  20534654.884    20534659.614
 04  7 13 17 21  0.0000000  0  7G22G21G18G19G15G 3G14
  20866784.380      452686.31749    350347.74448  20866783.806    20866786.636
  23526363.727     4146626.41049   3220636.06045  23526363.308    23526369.731
  22626944.078     2898681.89349   2247383.01345  22626943.403    22626948.314
  22199740.030    -3144051.39049  -2435203.90047  22199738.601    22199742.729
  20213937.297       29723.67549     25690.00748  20213936.363    20213942.212
  22059701.077     1327361.95949   1030802.98047  22059700.277    22059706.288
  20526909.949    -4204593.40349  -3074228.04848  20526909.206    20526913.918
 04  7 13 17 21 30.0000000  0  7G22G21G18G19G15G 3G14
  20873160.058      486191.40449    376455.60348  20873159.522    20873162.508
  23544771.232     4243357.42349   3296010.79145  23544770.525    23544777.291
  22640581.903     2970349.98249   2303228.23445  22640581.183    22640586.367
  22194572.432    -3171206.59049  -2456363.79547  22194571.108    22194575.342
  20220220.766       62743.19049     51419.47048  20220219.813    20220225.672
  22070313.301     1383128.20749   1074257.15547  22070312.341    22070318.247
  20519265.373    -4244765.03949  -3105530.61948  20519264.679    20519269.476
 04  7 13 17 22  0.0000000  0  7G22G21G18G19G15G 3G14
  20879576.697      519910.96049    402730.57348  20879576.170    20879579.204
  23563219.760     4340305.02949   3371554.25345  23563219.293    23563225.686
  22654239.594     3042124.65449   2359156.54245  22654239.117    22654244.884
  22189513.446    -3197790.34049  -2477078.44347  22189512.301    22189516.453
  20226592.131       96225.31149     77509.42948  20226591.212    20226597.205
  22081008.302     1439332.23149   1118052.47247  22081007.506    22081013.565
  20511722.522    -4284403.24749  -3136417.51748  20511721.851    20511726.631
 04  7 13 17 22 30.0000000  0  7G22G21G18G19G15G 3G14
  20886033.799      553843.92049    429171.80948  20886033.310    20886036.364
  23581708.778     4437467.26949   3447265.02545  23581708.761    23581715.245
  22667918.351     3114004.91249   2415167.11245  22667917.775    22667923.085
  22184563.409    -3223802.26949  -2497347.46147  22184562.277    22184566.624
  20233051.564      130169.68349    103959.56148  20233050.611    20233056.580
  22091786.540     1495971.59549   1162186.96647  22091785.765    22091791.692
  20504281.170    -4323507.76149  -3166888.55348  20504280.552    20504285.241
 04  7 13 17 23  0.0000000  0  7G22G21G18G19G15G 3G14
  20892531.091      587987.31349    455777.03747  20892530.562    20892533.528
  23600239.222     4534840.56049   3523140.20245  23600238.565    23600244.760
  22681616.147     3185987.41249   2471257.34945  22681615.425    22681620.801
  22179722.209    -3249243.62949  -2517171.87747  22179720.979    22179725.630
  20239598.542      164574.35649    130768.38048  20239597.588    20239603.740
  22102646.311     1553041.87249   1206657.28547  22102645.697    22102651.861
  20496941.186    -4362080.01549  -3196944.84648  20496940.493    20496945.199
 04  7 13 17 23 30.0000000  0  7G22G21G18G19G15G 3G14
  20899068.757      622343.23349    482547.89847  20899068.306    20899071.305
  23618809.320     4632426.96749   3599181.46445  23618808.470    23618815.008
  22695333.565     3258074.59749   2527429.16845  22695333.275    22695338.178
  22174989.969    -3274110.86949  -2536548.96047  22174988.865    22174993.536
  20246233.559      199442.11149    157938.05048  20246232.635    20246238.882
  22113588.457     1610543.54549   1251463.73947  22113587.851    22113594.217
  20489703.093    -4400116.77649  -3226583.87048  20489702.394    20489707.014
 04  7 13 17 24  0.0000000  0  7G22G21G18G19G15G 3G14
  20905646.603      656909.27949    509482.48248  20905646.082    20905649.084
  23637419.897     4730223.53149   3675386.49445  23637418.545    23637425.276
  22709071.084     3330264.42749   2583680.90244  22709070.397    22709074.633
  22170367.158    -3298404.74149  -2555479.25547  22170365.935    22170370.572
  20252956.539      234771.26149    185467.22948  20252955.601    20252961.737
  22124612.258     1668472.36849   1296603.02247  22124611.510    22124617.788
  20482566.626    -4437618.98949  -3255806.36548  20482565.945    20482570.542
 04  7 13 17 24 30.0000000  0  7G22G21G18G19G15G 3G14
  20912264.166      691684.92349    536580.34848  20912263.671    20912266.762
  23656069.885     4828228.87349   3751754.16045  23656068.623    23656075.207
  22722827.777     3402556.08549   2640012.01444  22722826.995    22722830.627
  22165853.474    -3322124.14349  -2573961.90547  22165852.220    22165856.942
  20259767.267      270562.08949    213356.16148  20259766.326    20259772.464
  22135716.237     1726826.31149   1342073.58047  22135715.873    22135722.414
  20475532.091    -4474585.91449  -3284611.75448  20475531.375    20475536.069
 04  7 13 17 25  0.0000000  0  7G22G21G18G19G15G 3G14
  20918921.575      726670.37749    563841.71548  20918921.172    20918924.275
  23674758.649     4926443.07549   3828284.62445  23674757.866    23674764.746
  22736603.896     3474950.11649   2696422.91645  22736603.047    22736607.317
  22161449.386    -3345267.55149  -2591995.75147  22161448.169    22161452.840
  20266666.019      306815.65749    241605.67848  20266665.170    20266671.334
  22146901.434     1785603.76849   1387874.13847  22146900.900    22146907.440
  20468599.615    -4511016.05049  -3312998.86548  20468598.964    20468603.641
 04  7 13 17 25 30.0000000  0  7G22G21G18G19G15G 3G14
  20925619.077      761865.90349    591266.78948  20925618.656    20925621.827
  23693487.831     5024865.81249   3904977.53845  23693487.200    23693494.316
  22750399.262     3547447.34949   2752914.22045  22750398.407    22750403.431
  22157155.495    -3367833.35949  -2609579.51947  22157154.142    22157158.772
  20273653.132      343532.94549    270216.54048  20273652.193    20273658.398
  22158166.702     1844803.57049   1434003.81547  22158166.311    22158172.969
  20461769.649    -4546907.93449  -3340966.55748  20461768.952    20461773.553
 04  7 13 17 26  0.0000000  0  7G22G21G18G19G15G 3G14
  20932355.723      797268.18049    618852.97947  20932355.352    20932358.517
  23712256.475     5123492.87249   3981829.69945  23712255.716    23712262.558
  22764214.269     3620044.19749   2809483.18845  22764213.522    22764218.468
  22152970.721    -3389823.40849  -2626714.60847  22152969.498    22152974.243
  20280727.995      380711.76249    299187.03348  20280727.065    20280733.334
  22169511.577     1904420.62149   1480458.61247  22169510.947    22169517.566
  20455041.699    -4582263.68549  -3368516.48448  20455040.950    20455045.555
 04  7 13 17 26 30.0000000  0  7G22G21G18G19G15G 3G14
  20939131.742      832876.55149    646599.74447  20939131.351    20939134.489
  23731063.548     5222323.16049   4058840.14545  23731062.558    23731069.171
  22778048.043     3692739.95349   2866129.17845  22778047.206    22778052.085
  22148896.070    -3411236.87149  -2643400.45547  22148894.659    22148899.224
  20287890.625      418351.82749    328516.93348  20287889.756    20287896.003
  22180935.203     1964452.65149   1527236.77947  22180934.689    22180941.075
  20448415.795    -4617082.82249  -3395648.27648  20448415.097    20448419.696
 04  7 13 17 27  0.0000000  0  7G22G21G18G19G15G 3G14
  20945947.232      868691.03349    674507.11248  20945946.782    20945949.887
  23749909.048     5321356.23549   4136008.65945  23749908.021    23749914.207
  22791901.180     3765535.27248   2922852.62145  22791900.265    22791904.862
  22144931.184    -3432072.42049  -2659635.92747  22144929.814    22144934.375
  20295141.213      456453.96149    358206.89148  20295140.376    20295146.638
  22192437.619     2024898.07349   1574337.06447  22192437.065    22192443.515
  20441892.337    -4651364.04449  -3422360.91548  20441891.622    20441896.139
 04  7 13 17 27 30.0000000  0  7G22G21G18G19G15G 3G14
  20952801.818      904711.40149    702574.91948  20952801.307    20952804.379
  23768793.338     5420591.50649   4213334.68545  23768792.198    23768798.357
  22805772.125     3838429.43949   2979653.44345  22805771.350    22805776.343
  22141076.295    -3452328.90549  -2675420.20747  22141075.093    22141079.776
  20302479.854      495018.58949    388257.24448  20302478.976    20302485.244
  22204018.269     2085754.78349   1621757.82347  22204017.778    22204024.120
  20435471.471    -4685106.53749  -3448653.75648  20435470.688    20435475.172
 04  7 13 17 28  0.0000000  0  7G22G21G18G19G15G 3G14
  20959695.328      940937.28149    730802.86047  20959694.855    20959697.953
  23787715.489     5520027.66849   4290817.29045  23787714.248    23787720.461
  22819662.803     3911423.21149   3036531.60645  22819662.188    22819666.678
  22137331.628    -3472005.27549  -2690752.43347  22137330.555    22137335.556
  20309906.623      534046.06649    418668.24948  20309905.735    20309912.000
  22215676.822     2147020.71449   1669497.47247  22215676.337    22215682.742
  20429153.046    -4718309.39149  -3474526.10848  20429152.392    20429156.957
 04  7 13 17 28 30.0000000  0  7G22G21G18G19G15G 3G14
  20966627.949      977367.87949    759190.32047  20966627.446    20966630.498
  23806675.493     5619663.61149   4368455.57645  23806674.443    23806680.869
  22833571.607     3984515.24549   3093486.36645  22833571.077    22833575.940
  22133698.078    -3491101.06049  -2705632.26547  22133696.900    22133701.837
  20317421.308      573536.00149    449439.60648  20317420.393    20317426.705
  22227412.610     2208693.22549   1717553.91547  22227412.193    22227418.769
  20422937.425    -4750972.51949  -3499977.89748  20422936.725    20422941.296
 04  7 13 17 29  0.0000000  0  7G22G21G18G19G15G 3G14
  20973599.197     1014001.64449    787736.11347  20973598.660    20973601.656
  23825673.170     5719497.20049   4446247.87145  23825672.189    23825678.791
  22847499.095     4057704.27449   3150516.70545  22847498.506    22847503.596
  22130174.876    -3509616.81449  -2720060.14947  22130173.629    22130178.330
  20325023.901      613487.75149    480570.81848  20325023.019    20325029.311
  22239225.388     2270768.93049   1765924.53747  22239224.925    22239231.489
  20416824.524    -4783096.28349  -3525009.38448  20416823.847    20416828.321
 04  7 13 17 29 30.0000000  0  7G22G21G18G19G15G 3G14
  20980608.848     1050837.85949    816439.65347  20980608.327    20980611.336
  23844708.646     5819526.94049   4524192.98745  23844707.394    23844713.890
  22861445.016     4130989.48149   3207622.02146  22861444.540    22861449.259
  22126761.926    -3527551.69149  -2734035.36947  22126760.712    22126765.354
  20332714.496      653901.57449    512062.08848  20332713.595    20332719.776
  22251114.333     2333245.59449   1814607.63047  22251113.864    22251120.578
  20410814.288    -4814680.42649  -3549620.40648  20410813.588    20410818.100
 04  7 13 17 30  0.0000000  0  7G22G21G18G19G15G 3G14
  20987656.928     1087875.88349    845300.42748  20987656.398    20987659.495
  23863780.927     5919751.52249   4602289.90045  23863779.697    23863785.706
  22875409.289     4204370.69349   3264802.20746  22875408.605    22875413.234
  22123459.760    -3544905.39649  -2747557.77247  22123458.588    22123462.948
  20340492.908      694776.96249    543913.03248  20340491.980    20340498.147
  22263079.110     2396120.52249   1863601.01247  22263078.751    22263085.230
  20404906.804    -4845724.53349  -3573810.60448  20404906.158    20404910.608
 04  7 13 17 30 30.0000000  0  7G22G21G18G19G15G 3G14
  20994743.263     1125114.94949    874317.85448  20994742.752    20994746.005
  23882889.474     6020169.66549   4680537.71245  23882888.620    23882894.987
  22889391.274     4277847.23049   3322056.66045  22889390.614    22889395.492
  22120268.520    -3561677.39649  -2760626.87547  22120267.128    22120271.375
  20348359.119      736113.66649    576123.43848  20348358.195    20348364.260
  22275119.104     2459391.18049   1912902.78947  22275118.646    22275125.366
  20399101.916    -4876228.43449  -3597579.88748  20399101.306    20399105.929
 04  7 13 17 31  0.0000000  0  7G22G21G18G19G15G 3G14
  21001868.064     1162556.06749    903492.73848  21001867.590    21001870.807
  23902035.352     6120781.81749   4758936.67345  23902034.555    23902041.194
  22903391.673     4351419.97949   3379386.06445  22903390.963    22903396.071
  22117187.827    -3577865.58049  -2773241.02647  22117186.511    22117191.012
  20356313.333      777913.60049    608694.80348  20356312.368    20356318.442
  22287234.237     2523056.61949   1962512.16847  22287233.809    22287240.568
  20393400.524    -4906190.12749  -3620926.64548  20393399.833    20393404.407
 04  7 13 17 31 30.0000000  0  7G22G21G18G19G15G 3G14
  21009031.001     1200197.12049    932823.42548  21009030.550    21009033.554
  23921217.747     6221585.03849   4837484.50645  23921216.946    23921223.579
  22917410.165     4425087.40949   3436789.17045  22917409.418    22917414.692
  22114218.218    -3593470.87449  -2785401.00247  22114216.936    22114221.399
  20364355.432      820174.95249    641625.70248  20364354.431    20364360.545
  22299423.820     2587113.23049   2012426.36647  22299423.290    22299430.266
  20387801.931    -4935610.69249  -3643851.75848  20387801.259    20387805.849
 04  7 13 17 32  0.0000000  0  7G22G21G18G19G15G 3G14
  21016231.915     1238037.96249    962309.78447  21016231.416    21016234.462
  23940436.159     6322578.28449   4916180.40545  23940435.732    23940442.177
  22931446.159     4498849.13949   3494265.80245  22931445.491    22931451.467
  22111359.740    -3608492.44949  -2797106.16847  22111358.495    22111362.818
  20372485.314      862898.11749    674916.46548  20372484.392    20372490.600
  22311687.400     2651558.90549   2062643.73347  22311687.010    22311693.834
  20382306.479    -4964489.39949  -3666354.64348  20382305.833    20382310.357
 04  7 13 17 32 30.0000000  0  7G22G21G18G19G15G 3G14
  21023470.455     1276077.42149    991950.92347  21023470.044    21023473.163
  23959690.392     6423759.79049   4995023.04245  23959689.741    23959696.542
  22945500.256     4572704.25449   3551815.17145  22945499.601    22945505.362
  22108612.045    -3622930.56349  -2808356.63347  22108610.967    22108615.479
  20380702.958      906082.28149    708566.44648  20380702.044    20380708.354
  22324024.818     2716390.43349   2113161.75346  22324024.120    22324030.739
  20376914.188    -4992826.63549  -3688435.59548  20376913.466    20376917.948
 04  7 13 17 33  0.0000000  0  8G22G21G 9G18G19G15G 3G14
  21030746.888     1314314.64849   1021746.15347  21030746.397    21030749.483
  23978980.358     6525128.60849   5074011.60245  23978979.768    23978986.555
                   -343686.08949   -273402.79943
  22959571.994     4646652.11249   3609436.82845  22959571.379    22959577.121
  22105976.086    -3636784.76049  -2819152.15247  22105974.762    22105979.141
  20389008.329      949727.29649    742575.53448  20389007.414    20389013.806
  22336434.802     2781604.97749   2163978.22546  22336434.098    22336440.629
  20371624.860    -5020622.37449  -3710094.60148  20371624.158    20371628.592
 04  7 13 17 33 30.0000000  0  8G22G21G 9G18G19G15G 3G14
  21038060.614     1352748.72149   1051694.73848  21038060.094    21038063.313
  23998305.574     6626682.44349   5153144.31445  23998304.770    23998311.776
                   -311764.22049   -248528.39743
  22973661.632     4720692.00649   3667130.20646  22973660.915    22973666.474
  22103450.636    -3650055.31849  -2829492.84147  22103449.351    22103453.816
  20397401.384      993832.63949    776943.30148  20397400.463    20397406.721
  22348917.303     2847199.58249   2215090.84646  22348916.517    22348922.976
  20366438.541    -5047876.70649  -3731331.73748  20366437.799    20366442.265
 04  7 13 17 34  0.0000000  0  7G22G21G18G19G15G 3G14
  21045411.863     1391379.82649   1081796.88548  21045411.415    21045414.692
  24017665.734     6728421.05949   5232421.05445  24017664.777    24017672.367
  22987768.024     4794823.88049   3724895.35445  22987767.578    22987773.411
  22101036.524    -3662740.74149  -2839377.59447  22101035.451    22101039.905
  20405882.047     1038398.89549    811670.24448  20405881.162    20405887.453
  22361471.938     2913172.84549   2266498.53646  22361470.926    22361477.318
  20361355.367    -5074588.56549  -3752146.16548  20361354.747    20361359.173
 04  7 13 17 34 30.0000000  0  7G22G21G18G19G15G 3G14
  21052800.461     1430206.67049   1112051.57648  21052799.980    21052803.174
  24037061.317     6830342.43649   5311840.16245  24037060.258    24037067.190
  23001892.711     4869046.94949   3782731.51845  23001892.003    23001897.475
  22098733.993    -3674841.57949  -2848806.83447  22098732.766    22098737.081
  20414450.261     1083425.25149    846755.70448  20414449.341    20414455.727
  22374097.541     2979521.61849   2318198.83846  22374096.685    22374103.126
  20356375.499    -5100758.50749  -3772538.31848  20356374.755    20356379.147
 04  7 13 17 35  0.0000000  0  7G22G21G18G19G15G 3G14
  21060226.136     1469228.52249   1142458.22447  21060225.599    21060228.618
  24056491.644     6932444.75749   5391400.25245  24056490.347    24056496.855
  23016033.982     4943360.67149   3840638.29045  23016033.370    23016039.049
  22096542.611    -3686357.69749  -2857780.45347  22096541.373    22096545.511
  20423105.853     1128911.07649    882199.18548  20423104.959    20423111.341
  22386794.114     3046242.85149   2370189.35646  22386793.276    22386799.879
  20351498.567    -5126386.61749  -3792508.27148  20351497.871    20351502.285
 04  7 13 17 35 30.0000000  0  7G22G21G18G19G15G 3G14
  21067688.841     1508444.61349   1173016.19147  21067688.293    21067691.206
  24075954.853     7034726.63949   5471100.37145  24075953.645    24075960.663
  23030193.077     5017764.14849   3898614.93545  23030192.190    23030197.324
  22094462.449    -3697288.87549  -2866298.25947  22094461.262    22094465.488
  20431849.079     1174856.15849    918000.52648  20431848.106    20431854.373
  22399561.108     3113333.85649   2422468.00146  22399560.287    22399567.084
  20346724.774    -5151472.99849  -3812056.09348  20346724.056    20346728.439
 04  7 13 17 36  0.0000000  0  7G22G21G18G19G15G 3G14
  21075188.627     1547856.32549   1203726.59947  21075188.001    21075191.056
  24095452.471     7137189.04349   5550941.04045  24095451.705    24095458.690
  23044368.541     5092258.96149   3956662.75445  23044367.946    23044373.438
  22092494.133    -3707632.77949  -2874358.44947  22092492.776    22092497.090
  20440679.975     1221262.30249    954161.13048  20440678.982    20440685.147
  22412398.197     3180793.92249   2475034.22746  22412397.539    22412404.281
  20342054.644    -5176015.32549  -3831179.96748  20342053.829    20342058.200
 04  7 13 17 36 30.0000000  0  7G22G21G18G19G15G 3G14
  21082725.283     1587462.48349   1234588.51948  21082724.753    21082727.912
  24114984.419     7239830.00749   5630920.83245  24114983.535    24114990.620
  23058561.703     5166844.19849   4014780.99045  23058561.011    23058566.537
  22090636.992    -3717390.14249  -2881961.59147  22090635.881    22090640.274
  20449598.254     1268128.58549    990680.29448  20449597.288    20449603.587
  22425305.151     3248620.05949   2527885.70446  22425304.624    22425311.109
  20337487.784    -5200014.11249  -3849880.31448  20337487.051    20337491.412
 04  7 13 17 37  0.0000000  0  7G22G21G18G19G15G 3G14
  21090298.854     1627261.14749   1265600.43448  21090298.320    21090301.455
  24134549.926     7342646.66549   5711037.56445  24134549.099    24134556.208
  23072771.372     5241518.22649   4072968.50445  23072770.754    23072776.374
  22088891.805    -3726561.77849  -2889108.32947  22088890.689    22088894.883
  20458603.903     1315453.65749   1027556.95848  20458602.944    20458609.313
  22438280.993     3316808.27049   2581019.32946  22438280.492    22438287.006
  20333024.132    -5223470.69249  -3868158.16548  20333023.321    20333027.770
 04  7 13 17 37 30.0000000  0  7G22G21G18G19G15G 3G14
  21097908.810     1667251.75849   1296761.96148  21097908.282    21097911.382
  24154148.718     7445637.40449   5791289.91245  24154147.881    24154154.972
  23086998.056     5316280.40049   4131224.78245  23086997.604    23087003.476
  22087258.170    -3735147.64549  -2895798.63347  22087256.800    22087261.032
  20467696.849     1363237.27249   1064790.92048  20467695.909    20467702.215
  22451325.416     3385356.11349   2634433.18246  22451324.831    22451331.282
  20328663.690    -5246385.05749  -3886013.50448  20328662.919    20328667.375
 04  7 13 17 38  0.0000000  0  7G22G21G18G19G15G 3G14
  21105554.960     1707432.97749   1328071.99947  21105554.419    21105557.569
  24173779.596     7548800.24949   5871676.40745  24173779.051    24173786.546
  23101242.210     5391129.73449   4189548.84245  23101241.502    23101247.059
  22085735.615    -3743148.36049  -2902032.97847  22085734.275    22085738.511
  20476877.039     1411478.33749   1102381.33148  20476876.014    20476882.184
  22464437.405     3454260.03149   2688124.49246  22464436.734    22464443.258
  20324406.222    -5268757.65549  -3903446.69048  20324405.517    20324409.849
 04  7 13 17 38 30.0000000  0  6G22G21G19G15G 3G14
  21113237.298     1747803.35749   1359529.39847  21113236.770    21113239.924
  24193443.268     7652133.02549   5952195.27045  24193442.758    24193450.653
  22084323.927    -3750564.64649  -2907811.90447  22084322.751    22084327.193
  20486143.764     1460175.45549   1140327.11748  20486142.778    20486148.973
  22477616.541     3523516.35349   2742090.38846  22477615.910    22477622.449
  20320251.817    -5290589.92049  -3920458.82748  20320251.103    20320255.400
 04  7 13 17 39  0.0000000  0  7G22G21G18G19G15G 3G14
  21120954.998     1788359.85149   1391131.85247  21120954.457    21120957.617
  24213138.291     7755632.10749   6032843.79545  24213137.752    24213145.831
                   -250616.087 9    815301.705 1
  22083023.574    -3757398.71149  -2913137.17447  22083022.371    22083026.688
  20495496.917     1509326.09449   1178626.29048  20495495.903    20495501.989
  22490861.819     3593120.29549   2796327.18346  22490861.151    22490867.815
  20316199.697    -5311883.91049  -3937051.54848  20316198.928    20316203.309
 04  7 13 17 39 30.0000000  0  7G22G21G18G19G15G 3G14
  21128709.109     1829108.04049   1422883.67747  21128708.549    21128711.659
  24232866.767     7859301.90749   6113625.25545  24232865.785    24232873.806
                   -175510.06449   -161969.59843
  22081835.229    -3763644.42749  -2918003.98047  22081833.835    22081837.980
  20504937.392     1558936.01749   1217283.34448  20504936.368    20504942.444
  22504174.059     3663075.56849   2850837.72246  22504173.265    22504179.934
  20312251.134    -5332633.49549  -3953220.04248  20312250.432    20312254.750
 04  7 13 17 40  0.0000000  0  8G22G21G11G18G19G15G 3G14
  21136499.049     1870044.09949   1454781.87847  21136498.437    21136501.503
  24252626.140     7963137.83349   6194536.23545  24252625.207    24252633.371
  24616193.655    -1694842.07149   -784042.61244  24616191.336    24616200.567
                   -100318.85049   -103379.06943                  23158386.943
  22080757.619    -3769305.27449  -2922415.02647  22080756.501    22080760.825
  20514464.341     1609001.13449   1256295.11448  20514463.353    20514469.626
  22517551.835     3733375.81549   2905617.06846  22517551.024    22517557.702
  20308405.492    -5352842.31649  -3968967.16948  20308404.814    20308409.196
 04  7 13 17 40 30.0000000  0  8G22G21G11G18G19G15G 3G14
  21144324.703     1911168.63549   1486826.97147  21144324.069    21144327.234
  24272417.031     8067139.77449   6275576.49145  24272415.957    24272424.126
  24597099.638    -1795181.58549   -862229.15944  24597097.971    24597105.913
                    -25042.00548    -44721.65344                  23172709.591
  22079792.220    -3774379.81349  -2926369.21847  22079790.938    22079795.290
  20524078.268     1659522.56249   1295662.43748  20524077.277    20524083.492
  22530994.521     3804019.50449   2960664.05146  22530993.938    22531000.733
  20304663.028    -5372508.93849  -3984291.80948  20304662.395    20304666.748
 04  7 13 17 41  0.0000000  0  8G22G21G11G18G19G15G 3G14
  21152187.315     1952486.93449   1519023.04548  21152186.775    21152189.830
  24292239.971     8171311.82549   6356749.34944  24292239.063    24292247.217
  24578020.227    -1895446.68949   -940357.75144  24578018.842    24578025.959
  23187044.060       50325.65749     14006.70944  23187047.351    23187048.498
  22078939.223    -3778862.51349  -2929862.22847  22078937.780    22078942.265
  20533780.137     1710505.74249   1335389.56348  20533779.140    20533785.310
  22544503.651     3875009.60149   3015980.95646  22544502.866    22544509.700
  20301024.838    -5391627.97649  -3999189.74248  20301024.183    20301028.434
 04  7 13 17 41 30.0000000  0  8G22G21G11G18G19G15G 3G14
  21160086.137     1993995.21449   1551367.15048  21160085.558    21160088.670
  24312095.352     8275649.85148   6438051.49944  24312094.100    24312102.147
  24558954.335    -1995638.60049  -1018429.37945  24558952.970    24558960.470
  23201403.882      125781.19749     72803.23744  23201403.803    23201408.994
  22078197.993    -3782756.19649  -2932896.27947  22078196.773    22078201.531
  20543569.107     1761947.09949   1375473.70948  20543568.144    20543574.294
  22558077.597     3946340.54849   3071563.45346  22558076.778    22558083.472
  20297490.147    -5410202.67749  -4013663.53048  20297489.491    20297493.800
 04  7 13 17 42  0.0000000  0  8G22G21G11G18G19G15G 3G14
  21168020.302     2035690.55949   1583857.00247  21168019.775    21168023.040
  24331980.535     8380149.59949   6519479.67744  24331979.600    24331987.962
  24539902.836    -2095758.07149  -1096444.47645  24539901.419    24539908.533
  23215779.093      201321.32349    131665.89544  23215778.750    23215785.382
  22077568.758    -3786063.74249  -2935473.58647  22077567.427    22077572.206
  20553444.720     1813843.68049   1415912.59648  20553443.727    20553449.999
  22571715.358     4018007.24149   3127407.58346  22571714.567    22571721.142
  20294058.548    -5428235.45849  -4027715.04148  20294057.986    20294062.254
 04  7 13 17 42 30.0000000  0  8G22G21G11G18G19G15G 3G14
  21175990.018     2077571.53049   1616491.48747  21175989.557    21175992.705
  24351897.731     8484808.89449   6601032.17744  24351896.271    24351903.751
  24520864.817    -2195804.04049  -1174402.25745  24520863.350    24520870.080
  23230169.732      276944.97549    190593.49144  23230169.338    23230175.787
  22077051.061    -3788786.07749  -2937594.92847  22077049.616    22077054.093
  20563406.631     1866194.21249   1456705.19248  20563405.700    20563411.896
  22585416.157     4090005.74749   3183510.25746  22585415.462    22585422.124
  20290730.032    -5445727.50949  -4041345.20348  20290729.371    20290733.670
 04  7 13 17 43  0.0000000  0  8G22G21G11G18G19G15G 3G14
  21183994.805     2119636.60449   1649269.45147  21183994.306    21183997.434
  24371844.134     8589625.44549   6682707.21345  24371842.953    24371850.228
  24501840.138    -2295775.53149  -1252302.03445  24501839.161    24501845.682
  23244576.197      352650.58449    249584.96845  23244575.646    23244581.977
  22076644.228    -3790924.30849  -2939261.08747  22076642.888    22076647.316
  20573454.896     1918997.46349   1497850.55448  20573453.914    20573460.070
  22599179.792     4162332.71349   3239868.87246  22599178.894    22599185.616
  20287504.074    -5462679.84149  -4054554.80248  20287503.463    20287507.774
 04  7 13 17 43 30.0000000  0  8G22G21G11G18G19G15G 3G14
  21192034.568     2161886.22749   1682191.21647  21192034.100    21192037.266
  24391820.299     8694598.68049   6764504.34845  24391818.756    24391826.452
  24482830.698    -2395669.59749  -1330141.47945  24482829.660    24482836.572
  23258998.225      428438.78849    308640.67545  23258997.562    23259003.354
  22076348.758    -3792477.32949  -2940471.23947  22076347.393    22076351.920
  20583589.112     1972253.83549   1539349.00847  20583588.169    20583594.440
  22613005.246     4234986.30149   3296482.00546  22613004.542    22613011.342
  20284381.042    -5479091.58749  -4067343.18048  20284380.336    20284384.769
 04  7 13 17 44  0.0000000  0  8G22G21G11G18G19G15G 3G14
  21200109.804     2204321.51249   1715257.67547  21200109.369    21200112.456
  24411825.012     8799728.67349   6846423.67645  24411824.174    24411832.438
  24463836.731    -2495482.34749  -1407917.61145  24463836.138    24463842.699
  23273436.189      504310.85049    367761.66845  23273435.614    23273440.745
  22076164.879    -3793443.86149  -2941224.41147  22076163.490    22076167.901
  20593809.854     2025964.41849   1581201.40047  20593808.942    20593815.270
  22626892.919     4307965.57349   3353348.91346  22626892.109    22626898.836
  20281361.118    -5494961.79449  -4079709.55848  20281360.377    20281364.783
 04  7 13 17 44 30.0000000  0  8G22G21G11G18G19G15G 3G14
  21208219.737     2246939.25449   1748466.30447  21208219.286    21208222.393
  24431860.958     8905011.51449   6928462.07745  24431859.665    24431867.759
  24444857.683    -2595214.88648  -1485631.23644  24444857.121    24444863.752
  23287889.934      580263.32848    426945.50445  23287889.402    23287893.957
  22076092.136    -3793826.61849  -2941522.67747  22076090.770    22076095.164
  20604116.675     2080126.10349   1623405.27848  20604115.668    20604121.842
  22640841.265     4381264.82049   3410465.15746  22640840.612    22640847.146
  20278443.646    -5510292.98649  -4091655.93448  20278442.946    20278447.344
 04  7 13 17 45  0.0000000  0  8G22G 9G11G18G19G15G 3G14
  21216364.778     2289742.65349   1781819.58947  21216364.377    21216367.579
                   -156017.55149   -136011.04943
  24425893.684    -2694861.59849  -1563278.02345  24425894.334    24425901.682
  23302359.257      656300.22949    486195.08745  23302358.712    23302363.262
  22076131.256    -3793622.44849  -2941363.60247  22076129.723    22076134.069
  20614509.693     2134741.94449   1665963.06547  20614508.752    20614514.917
  22654850.591     4454885.05449   3467831.52446  22654849.994    22654856.697
  20275629.385    -5525081.94949  -4103179.80448  20275628.674    20275633.167
 04  7 13 17 45 30.0000000  0  7G22G11G18G19G15G 3G14
  21224545.880     2332734.09549   1815319.39847  21224545.433    21224548.538
  24406949.720    -2794417.51849  -1640854.01845  24406949.969    24406957.156
  23316844.891      732424.19249    545512.38245  23316844.435    23316849.479
  22076282.339    -3792828.44849  -2940744.91047  22076280.799    22076285.293
  20624989.790     2189814.57549   1708876.77047  20624988.807    20624994.762
  22668921.416     4528826.75649   3525448.35046  22668920.633    22668927.272
  20272918.869    -5539326.14449  -4114279.15848  20272918.121    20272922.541
 04  7 13 17 46  0.0000000  0  7G22G11G18G19G15G 3G14
  21232760.961     2375904.32549   1848958.54747  21232760.496    21232763.588
  24388021.238    -2893889.46549  -1718364.55645  24388021.325    24388028.519
  23331345.776      808625.92149    604890.27545  23331345.176    23331350.067
  22076543.875    -3791453.43649  -2939673.48547  22076542.537    22076546.967
  20635554.856     2245334.57049   1752139.08147  20635553.864    20635559.869
  22683050.923     4603078.26749   3583306.61946  22683050.340    22683056.955
  20270310.142    -5553034.28649  -4124960.83048  20270309.497    20270313.996
 04  7 13 17 46 30.0000000  0  7G22G11G18G19G15G 3G14
  21241010.247     2419253.81649   1882737.37547  21241009.745    21241012.929
  24369108.815    -2993274.31849  -1795807.23245  24369108.587    24369115.510
  23345861.644      884906.00348    664329.22845  23345860.964    23345865.339
  22076916.248    -3789497.00449  -2938149.00047  22076914.840    22076919.365
  20646205.077     2301302.27449   1795750.26847  20646204.190    20646210.433
  22697239.228     4677637.79449   3641404.89646  22697238.708    22697245.125
  20267803.607    -5566205.99549  -4135224.49548  20267802.992    20267807.433
 04  7 13 17 47  0.0000000  0  6G22G11G19G15G 3G14
  21249293.617     2462784.08749   1916657.03647  21249293.151    21249296.495
  24350214.198    -3092568.17049  -1873178.95644  24350213.757    24350219.820
  22077399.457    -3786957.44449  -2936170.14747  22077398.085    22077402.642
  20656940.899     2357719.17149   1839711.45247  20656939.998    20656946.181
  22711485.809     4752504.42749   3699742.49046  22711485.346    22711492.052
  20265399.528    -5578839.57349  -4145068.84148  20265398.876    20265403.369
 04  7 13 17 47 30.0000000  0  7G22G11G18G19G15G 3G14
  21257611.476     2506495.16049   1950717.57047  21257611.062    21257614.340
  24331337.217    -3191768.67849  -1950477.97544  24331336.228    24331342.085
                   -116926.15049   -110560.14443
  22077993.794    -3783834.58149  -2933736.75447  22077992.394    22077996.867
  20667762.199     2414584.91849   1884022.39547  20667761.277    20667767.341
  22725790.249     4827675.66749   3758317.40646  22725789.913    22725796.789
  20263097.834    -5590934.97749  -4154493.82148  20263097.130    20263101.637
 04  7 13 17 48  0.0000000  0  7G22G11G18G19G15G 3G14
  21265963.618     2550386.48149   1984918.58447  21265963.210    21265966.538
  24312477.281    -3290873.52349  -2027702.47744  24312476.572    24312482.417
                    -40406.75949    -50935.22243
  22078698.963    -3780128.85849  -2930849.20247  22078697.665    22078702.015
  20678668.701     2471899.34849   1928682.96847  20678667.796    20678673.965
  22740152.253     4903149.09849   3817127.82046  22740151.890    22740159.120
  20260898.473    -5602492.25549  -4163499.49048  20260897.862    20260902.420
 04  7 13 17 48 30.0000000  0  7G22G11G18G19G15G 3G14
  21274350.264     2594458.28149   2019260.22447  21274349.884    21274353.166
  24293637.020    -3389880.54549  -2104850.73544  24293636.247    24293641.065
                     36192.20249      8751.97543
  22079515.140    -3775840.15549  -2927507.36347  22079513.841    22079518.083
  20689660.628     2529662.32549   1973693.05247  20689659.746    20689665.888
  22754571.801     4978922.52349   3876171.98446  22754571.287    22754578.249
  20258801.648    -5613511.59249  -4172085.97848  20258800.984    20258805.562
 04  7 13 17 49  0.0000000  0  7G22G11G18G19G15G 3G14
  21282770.548     2638705.97649   2053738.93447  21282770.065    21282773.243
  24274814.624    -3488791.51548  -2181924.16144  24274813.498    24274818.683
                    112866.67349     68498.26144                  23418672.419
  22080441.472    -3770972.74649  -2923714.59647  22080440.129    22080444.377
  20700737.067     2587869.10649   2019048.95647  20700736.119    20700742.383
  22769047.564     5054989.10449   3935444.57446  22769046.527    22769053.230
  20256806.249    -5623997.12949  -4180256.52448  20256805.625    20256810.238
 04  7 13 17 49 30.0000000  0  7G22G11G18G19G15G 3G14
  21291224.829     2683133.60549   2088357.84748  21291224.392    21291227.526
  24256011.177    -3587600.19448  -2258917.91044  24256011.074    23433271.083
                    189621.05449    128306.88445  23433270.255    23433278.871
  22081478.517    -3765522.64649  -2919467.78047  22081477.142    22081481.570
  20711898.603     2646523.51149   2064753.66847  20711897.662    20711904.017
  22783578.561     5131350.63949   3994947.02146  22783577.678    22783584.377
  20254913.429    -5633944.94649  -4188008.06148  20254912.716    20254917.245
 04  7 13 17 50  0.0000000  0  7G22G11G18G19G15G 3G14
  21299713.220     2727740.18049   2123116.19148  21299712.706    21299715.904
  24237229.360    -3686304.75049  -2335830.40044  24237228.614    24237234.352
  23447892.016      266454.31749    188177.07844  23447894.691    23447898.835
  22082626.430    -3759490.72349  -2914767.60447  22082625.067    22082629.428
  20723145.389     2705624.46549   2110806.31947  20723144.376    20723150.683
  22798165.212     5208003.77549   4054676.68046  22798164.219    22798171.064
  20253122.589    -5643356.14849  -4195341.45548  20253121.865    20253126.328
 04  7 13 17 50 30.0000000  0  8G22G11G18G19G15G 3G25G14
  21308234.273     2772518.88349   2158008.67448  21308233.816    21308237.055
  24218466.527    -3784909.47149  -2412665.18144  24218465.214    24218470.962
  23462526.747      343359.53248    248103.12244  23462526.704    23462532.471
  22083883.381    -3752884.09749  -2909619.58847  22083882.127    22083886.620
  20734475.531     2765164.93349   2157201.47547  20734474.472    20734480.939
  22812805.408     5284939.14849   4114626.26146  22812804.524    22812811.635
  24500417.763    -3532330.14249  -2735229.23245  24500417.354    24500425.774
  20251432.576    -5652237.58149  -4202262.05148  20251431.796    20251436.247
 04  7 13 17 51  0.0000000  0  8G22G11G18G19G15G 3G25G14
  21316789.131     2817474.33649   2193038.88847  21316788.644    21316791.770
  24199723.997    -3883407.35749  -2489416.79344  24199722.139    24199727.705
  23477176.054      420338.91657    308086.90444  23477175.664
  22085250.737    -3745697.96049  -2904020.02047  22085249.590    22085254.113
  20745890.246     2825149.54949   2203942.69247  20745889.210    20745895.629
  22827499.520     5362159.04149   4174797.55446  22827498.891    22827506.141
  24481298.860    -3632798.96849  -2813516.59445  24481298.560    24481306.969
  20249844.235    -5660584.39049  -4208766.06248  20249843.435    20249847.869
 04  7 13 17 51 30.0000000  0  7G22G11G19G15G 3G25G14
  21325376.616     2862602.46649   2228203.65947  21325376.169    21325379.446
  24181000.339    -3981800.03349  -2566086.38844  24180999.053    24181004.463
  22086727.635    -3737936.62549  -2897972.24947  22086726.468    22086731.187
  20757388.495     2885573.52749   2251026.28147  20757387.500    20757393.970
  22842247.057     5439657.05249   4235185.55046  22842246.451    22842253.617
  24462173.496    -3733301.38649  -2891830.05845  24462173.231    24462181.685
  20248356.916    -5668400.96549  -4214856.88148  20248356.045    20248360.365
 04  7 13 17 52  0.0000000  0  7G22G11G19G15G 3G25G14
  21333998.618     2907911.39749   2263509.29147  21333998.141    21334001.402
  24162298.587    -4080076.97049  -2642665.75445  24162297.679    24162302.852
  22088315.483    -3729592.18649  -2891470.09047  22088314.418    22088319.262
  20768972.050     2946444.94449   2298458.51447  20768970.951    20768977.290
  22857048.901     5517438.97349   4295794.77946  22857048.065    22857055.194
  24443044.735    -3833825.83149  -2970160.62645  24443044.004    24443052.764
  20246971.721    -5675679.38349  -4220528.37548  20246970.993    20246975.311
 04  7 13 17 52 30.0000000  0  7G22G11G19G15G 3G25G14
  21342654.513     2953398.68549   2298953.91347  21342654.088    21342657.417
  24143618.686    -4178237.91649  -2719154.72545  24143618.081    24143623.430
  22090014.159    -3720666.95449  -2884515.40247  22090012.932    22090017.734
  20780639.964     3007761.14649   2346237.36147  20780638.953    20780645.489
  22871903.113     5595499.97149   4356621.48046  22871902.481    22871909.641
  24423910.997    -3934371.69449  -3048507.95445  24423910.608    24423919.312
  20245688.775    -5682422.05449  -4225782.39248  20245687.902    20245692.119
 04  7 13 17 53  0.0000000  0  7G22G11G19G15G 3G25G14
  21351344.273     2999063.11949   2334536.56747  21351343.763    21351347.320
  24124961.411    -4276281.71049  -2795552.38645  24124961.056    24124966.744
  22091822.776    -3711162.51249  -2877109.36147  22091821.610    22091826.283
  20792392.382     3069520.45049   2394361.45147  20792391.427    20792397.817
  22886810.255     5673836.63649   4417662.95446  22886809.571    22886816.600
  24404773.483    -4034937.06149  -3126870.49845  24404773.218    24404782.460
  20244507.207    -5688630.29849  -4230619.98948  20244506.390    20244510.784
 04  7 13 17 53 30.0000000  0  7G22G11G19G15G 3G25G14
  21360066.936     3044901.95249   2370255.13647  21360066.543    21360070.117
  24106326.690    -4374208.47349  -2871858.89345  24106326.338    24106331.892
  22093741.291    -3701081.83549  -2869254.29747  22093739.942    22093744.786
  20804228.501     3131719.63749   2442828.33347  20804227.473    20804234.028
  22901768.609     5752443.57649   4478915.05746  22901767.956    22901775.171
  24385633.039    -4135521.65749  -3205247.99245  24385632.699    24385641.413
  20243426.962    -5694307.06949  -4235043.43348  20243426.198    20243430.477
 04  7 13 17 54  0.0000000  0  7G22G11G19G15G 3G25G14
  21368823.183     3090915.11249   2406109.53447  21368822.702    21368826.189
  24087714.891    -4472015.97849  -2948072.47345  24087714.212    24087719.580
  22095769.163    -3690425.29749  -2860950.52247  22095767.838    22095772.493
  20816148.343     3194358.41349   2491637.72847  20816147.301    20816153.776
  22916778.259     5831318.28449   4540375.81046  22916777.385    22916784.762
  24366489.298    -4236122.54849  -3283638.17645  24366488.911    24366497.898
  20242447.776    -5699452.82949  -4239053.11448  20242446.956    20242451.274
 04  7 13 17 54 30.0000000  0  7G22G11G19G15G 3G25G14
  21377612.050     3137101.16149   2442098.68047  21377611.607    21377615.109
  24069125.804    -4569702.94749  -3024192.07145  24069124.842    24069130.198
  22097906.457    -3679194.27049  -2852199.11247  22097905.098    22097909.632
  20828151.625     3257435.16749   2540788.41547  20828150.591    20828156.952
  22931838.172     5910456.92649   4602042.21946  22931837.130    22931844.399
  24347342.430    -4336737.83949  -3362039.59645  24347342.326    24347351.678
  20241569.283    -5704068.98649  -4242650.10448  20241568.544    20241572.749
 04  7 13 17 55  0.0000000  0  7G22G11G19G15G 3G25G14
  21386434.277     3183461.22749   2478223.41747  21386433.770    21386437.072
  24050559.759    -4667265.77149  -3100214.94245  24050559.105    24050564.419
  22100153.163    -3667388.20349  -2842999.60747  22100151.684    22100156.260
  20840238.229     3320950.52949   2590280.89047  20840237.184    20840243.494
  22946947.367     5989858.14949   4663913.24746  22946946.570    22946953.921
  24328193.715    -4437363.65449  -3440449.23445  24328193.612    24328203.218
  20240791.780    -5708154.70549  -4245833.78148  20240790.942    20240795.372
 04  7 13 17 55 30.0000000  0  7G22G11G19G15G 3G25G14
  21395289.352     3229994.07749   2514482.78047  21395288.819    21395292.031
  24032018.201    -4764703.23049  -3176140.15045  24032017.111    24032022.541
  22102508.797    -3655008.77249  -2833353.30147  22102507.452    22102512.029
  20852408.203     3384902.85849   2640113.83147  20852407.039    20852413.159
  22962106.060     6069518.51549   4725986.18846  22962105.455    22962112.820
  24309043.838    -4537997.61849  -3518865.22045  24309043.769    24309052.924
  20240114.809    -5711711.49449  -4248605.29848  20240114.120    20240118.525
 04  7 13 17 56  0.0000000  0  7G22G11G19G15G 3G25G14
  21404176.862     3276698.86149   2550876.07947  21404176.269    21404179.564
  24013500.493    -4862013.93649  -3251966.67445  24013499.491    24013505.026
  22104973.638    -3642057.11349  -2823261.12747  22104972.106    22104976.598
  20864660.791     3449290.74549   2690286.18047  20864659.657    20864665.921
  22977313.678     6149434.57749   4788258.38746  22977312.988    22977320.412
  24289893.336    -4638637.76649  -3597285.99645  24289892.717    24289901.547
  20239538.551    -5714740.44849  -4250965.50948  20239537.780    20239542.121
 04  7 13 17 56 30.0000000  0  7G22G11G19G15G 3G25G14
  21413096.837     3323576.05749   2587403.71246  21413096.332    21413099.890
  23995007.688    -4959194.43249  -3327691.67245  23995006.682    23995012.240
  22107546.924    -3628532.98849  -2812722.86647  22107545.535    22107550.183
  20876996.283     3514114.45249   2740798.13947  20876995.237    20877001.457
  22992569.296     6229604.59049   4850728.47646  22992568.786    22992576.286
  24270741.989    -4739280.52449  -3675708.84045  24270741.115    24270749.847
  20239062.571    -5717241.36349  -4252914.26448  20239061.829    20239066.239
 04  7 13 17 57  0.0000000  0  8G22G 9G11G19G15G 3G25G14
  21422050.201     3370625.55749   2624065.60547  21422049.584    21422053.288
                    -21727.95649    -25223.47143
  23976539.436    -5056242.73349  -3403313.71345  23976538.847    23976544.503
  22110229.401    -3614437.23449  -2801739.19247  22110227.888    22110232.477
  20889414.675     3579373.02049   2791648.93947  20889413.580    20889419.789
  23007873.173     6310025.58649   4913394.12146  23007872.481    23007880.183
  24251589.891    -4839922.96849  -3754131.45445  24251589.355    24251598.286
  20238686.895    -5719215.08649  -4254452.23448  20238686.149    20238690.752
 04  7 13 17 57 30.0000000  0  7G22G11G19G15G 3G25G14
  21431035.992     3417845.78649   2660860.57647  21431035.433    21431039.159
  23958097.344    -5153157.30249  -3478831.49945  23958095.986    23958102.110
  22113019.936    -3599771.59949  -2790311.44347  22113018.626    22113023.121
  20901915.395     3645065.05249   2842837.49747  20901914.256    20901920.548
  23023223.928     6390693.80249   4976252.41546  23023223.174    23023230.831
  24232438.377    -4940562.95949  -3832552.14445  24232437.864    24232447.099
  20238411.334    -5720663.02549  -4255580.48148  20238410.680    20238415.057
 04  7 13 17 58  0.0000000  0  7G22G11G19G15G 3G25G14
  21440054.462     3465237.90449   2697789.46147  21440053.949    21440057.419
  23939680.633    -5249934.89849  -3554242.56245  23939679.755    23939685.774
  22115919.274    -3584535.46749  -2778439.15747  22115917.978    22115922.396
  20914498.599     3711190.82649   2894364.04147  20914497.535    20914503.937
  23038621.311     6471607.65949   5039302.10346  23038620.535    23038628.265
  24213287.720    -5041196.40949  -3910967.72745  24213287.810    24213296.884
  20238236.065    -5721584.44949  -4256298.46548  20238235.341    20238239.704
 04  7 13 17 58 30.0000000  0  7G22G11G19G15G 3G25G14
  21449105.330     3512800.05449   2734850.87647  21449104.824    21449108.190
  23921290.494    -5346574.87649  -3629546.38745  23921289.725    23921295.698
  22118926.943    -3568731.33349  -2766124.27647  22118925.517    22118929.644
  20927164.070     3777747.96649   2946226.72147  20927162.966    20927169.430
  23054064.085     6552762.80049   5102539.81946  23054063.804    23054071.583
  24194139.294    -5141821.99649  -3989377.17445  24194139.007    24194148.141
  20238160.485    -5721981.88749  -4256608.15648  20238159.744    20238164.203
 04  7 13 17 59  0.0000000  0  7G22G11G19G15G 3G25G14
  21458188.430     3560531.20349   2772044.00547  21458187.925    21458191.285
  23902927.199    -5443075.70449  -3704741.83345  23902926.388    23902932.502
  22122041.817    -3552360.66949  -2753367.90847  22122040.690    22122044.951
  20939911.295     3844735.01149   2998424.38047  20939910.292    20939916.699
  23069553.144     6634156.17949   5165963.16246  23069552.521    23069560.328
  24174992.727    -5242438.08849  -4067779.22644  24174992.270    24175000.960
  20238184.226    -5721856.54249  -4256510.47948  20238183.477    20238187.921
 04  7 13 17 59 30.0000000  0  7G22G11G19G15G 3G25G14
  21467303.418     3608429.90649   2809367.69647  21467302.866    21467306.129
  23884590.479    -5539436.62849  -3779828.22445  23884589.503    23884595.617
  22125264.787    -3535425.59349  -2740171.76347  22125263.369    22125267.440
  20952739.957     3912149.83349   3050955.37947  20952738.981    20952745.319
  23085086.384     6715783.59149   5229568.87046  23085085.827    23085093.460
  24155849.379    -5343042.70749  -4146172.37444  24155848.333    24155856.513
  20238307.249    -5721210.70749  -4256007.21748  20238306.472    20238310.903
 04  7 13 18  0  0.0000000  0  7G22G11G19G15G 3G25G14
  21476450.451     3656497.57549   2846823.01747  21476449.903    21476453.022
  23866281.100    -5635653.06949  -3854802.00945  23866280.147    23866286.001
  22128594.875    -3517925.21649  -2726535.11547  22128593.523    22128597.688
  20965650.174     3979993.27849   3103820.37747  20965649.173    20965655.537
  23100663.842     6797644.07149   5293356.20546  23100663.464    23100670.933
  24136708.441    -5443631.50949  -4224553.20545  24136707.074    24136714.868
  20238529.393    -5720043.32149  -4255097.56548  20238528.598    20238533.139
 04  7 13 18  0 30.0000000  0  7G22G11G19G15G 3G25G14
  21485629.435     3704733.43249   2884409.36847  21485628.819    21485632.145
  23848000.012    -5731723.74049  -3929662.17345  23847998.913    23848004.022
  22132032.479    -3499861.04149  -2712459.15847  22132031.104    22132035.308
  20978641.648     4048263.90349   3157018.23147  20978640.580    20978647.008
  23116285.358     6879734.12549   5357322.42746  23116284.819    23116292.117
  24117570.045    -5544201.95849  -4302919.70645  24117568.965    24117577.017
  20238850.615    -5718355.35749  -4253782.25548  20238849.836    20238854.272
 04  7 13 18  1  0.0000000  0  7G22G11G19G15G 3G25G14
  21494840.492     3753138.10649   2922127.27647  21494839.852    21494843.300
  23829747.067    -5827645.25449  -4004406.13145  23829745.760    23829750.671
  22135577.311    -3481232.89149  -2697943.74247  22135575.919    22135580.188
  20991714.491     4116961.88949   3210549.09447  20991713.469    20991719.749
  23131950.450     6962051.98049   5421466.14946  23131949.495    23131956.906
  24098435.709    -5644750.09949  -4381268.85145  24098435.121    24098443.610
  20239270.843    -5716146.75549  -4252061.26248  20239270.105    20239274.533
 04  7 13 18  1 30.0000000  0  7G22G11G19G15G 3G25G14
  21504083.526     3801710.90149   2959976.19047  21504082.973    21504086.338
  23811522.562    -5923415.87749  -4079032.55745  23811521.267    23811526.270
  22139229.098    -3462042.26749  -2682990.02447  22139227.712    22139232.015
  21004868.374     4186085.74949   3264411.81847  21004867.293    21004873.575
  23147657.656     7044594.41849   5485784.86146  23147656.701    23147664.245
  24079307.089    -5745273.53849  -4459598.73545  24079306.422    24079314.713
  20239789.962    -5713418.82649  -4249935.60348  20239789.235    20239793.665
 04  7 13 18  2  0.0000000  0  7G22G11G19G15G 3G25G14
  21513358.427     3850451.03149   2997955.48447  21513357.893    21513361.284
  23793326.421    -6019033.67149  -4153539.90345  23793325.464    23793330.806
  22142987.750    -3442290.55549  -2667599.10247  22142986.469    22142990.815
  21018103.043     4255634.32849   3318605.50147  21018102.030    21018108.365
  23163406.556     7127358.14749   5550276.01846  23163406.067    23163413.591
  24060183.659    -5845770.13149  -4537907.73045  24060182.483    24060190.930
  20240407.669    -5710172.93449  -4247406.33248  20240406.908    20240411.367
 04  7 13 18  2 30.0000000  0  7G22G11G19G15G 3G25G14
  21522665.318     3899359.28249   3036065.82847  21522664.789    21522668.189
  23775160.312    -6114495.77849  -4227925.87445  23775159.481    23775164.898
  22146853.348    -3421977.87649  -2651771.07047  22146851.883    22146856.081
  21031418.513     4325607.44549   3373129.97947  21031417.493    21031423.817
  23179198.294     7210341.15249   5614938.02146  23179197.585    23179204.651
  24041065.232    -5946236.19949  -4616192.91945  24041064.418    24041072.861
  20241123.923    -5706408.96849  -4244473.36548  20241123.162    20241127.654
 04  7 13 18  3  0.0000000  0  7G22G11G19G15G 3G25G14
  21532004.072     3948433.92449   3074305.77947  21532003.554    21532006.718
  23757023.688    -6209801.45649  -4302189.94945  23757023.194    23757028.918
  22150824.953    -3401106.91449  -2635507.99847  22150823.494    22150827.752
  21044814.143     4396002.68949   3427983.39347  21044813.159    21044819.616
  23195030.245     7293539.10649   5679767.56946  23195029.575    23195036.754
  24021953.669    -6046670.07949  -4694452.99845  24021952.578    24021961.034
  20241938.179    -5702129.31249  -4241138.56648  20241937.468    20241942.014
 04  7 13 18  3 30.0000000  0  7G22G11G19G15G 3G25G14
  21541374.202     3997673.47449   3112674.23847  21541373.578    21541376.798
  23738918.212    -6304949.04849  -4376330.86445  23738917.439    23738922.777
  22154902.392    -3379679.65349  -2618811.45647  22154900.812    22154905.427
  21058290.030     4466818.28749   3483164.34747  21058289.010    21058295.413
  23210902.784     7376948.56649   5744761.87646  23210902.056    23210909.157
  24002848.641    -6147069.74049  -4772686.41945  24002847.264    24002855.763
  20242850.462    -5697335.77249  -4237403.32448  20242849.737    20242854.175
 04  7 13 18  4  0.0000000  0  7G22G11G19G15G 3G25G14
  21550775.547     4047078.46949   3151171.60347  21550775.059    21550778.427
  23720842.899    -6399935.71449  -4450346.44245  23720842.043    23720847.416
  22159085.423    -3357696.39349  -2601681.65447  22159084.085    22159088.937
  21071845.755     4538053.60149   3538672.35547  21071844.646    21071851.026
  23226815.001     7460566.85249   5809918.89746  23226814.132    23226821.068
  23983750.179    -6247432.12249  -4850890.75245  23983748.826    23983757.592
  20243860.376    -5692028.75049  -4233267.97748  20243859.608    20243864.050
 04  7 13 18  4 30.0000000  0  7G22G11G19G15G 3G25G14
  21560208.672     4096649.89949   3189798.66347  21560208.179    21560211.583
  23702798.674    -6494758.22549  -4524234.07645  23702798.034    23702803.577
  22163374.435    -3335157.06249  -2584118.57347  22163373.156    22163378.138
  21085481.208     4609709.08549   3594507.77747  21085480.225    21085486.610
  23242766.492     7544392.79849   5875237.77046  23242765.768    23242772.794
  23964658.963    -6347752.76049  -4929062.64445  23964658.174    23964667.275
  20244967.978    -5686207.69949  -4228732.08348  20244967.310    20244971.697
 04  7 13 18  5  0.0000000  0  7G22G11G19G15G 3G25G14
  21569673.217     4146386.39149   3228554.35947  21569672.677    21569675.919
  23684786.428    -6589415.44849  -4597992.87845  23684785.584    23684790.944
  22167768.738    -3312063.99349  -2566123.98747  22167767.594    22167772.789
  21099196.393     4681782.61849   3650668.95747  21099195.371    21099201.840
  23258757.192     7628422.45249   5940715.35246  23258756.338    23258763.255
  23945576.996    -6448029.79849  -5007200.43445  23945575.983    23945584.876
  20246173.180    -5679874.75349  -4223797.31848  20246172.427    20246176.936
 04  7 13 18  5 30.0000000  0  7G22G11G19G15G 3G25G14
  21579169.055     4196287.40949   3267438.27247  21579168.573    21579171.722
  23666805.463    -6683904.74749  -4671620.85245  23666804.752    23666810.059
  22172268.516    -3288418.57049  -2547699.03047  22172267.189    22172272.444
  21112991.015     4754272.94249   3707154.88847  21112989.931    21112996.393
  23274785.297     7712652.45249   6006349.06146  23274784.592    23274791.728
  23926503.030    -6548260.84449  -5085302.49945  23926502.307    23926511.418
  20247475.386    -5673031.14749  -4218464.63448  20247474.685    20247479.197
 04  7 13 18  6  0.0000000  0  7G22G11G19G15G 3G25G14
  21588696.391     4246353.38949   3306450.74046  21588695.956    21588699.172
  23648857.401    -6778223.53149  -4745115.92745  23648856.259    23648861.623
  22176873.190    -3264221.27649  -2528844.03447  22176871.931    22176877.072
  21126864.718     4827179.69349   3763965.30047  21126863.697    21126870.053
  23290851.609     7797080.79749   6072137.30246  23290850.790    23290857.910
  23907439.055    -6648442.50349  -5163366.03245  23907438.216    23907447.205
  20248874.988    -5665677.23949  -4212734.29648  20248874.216    20248878.541
 04  7 13 18  6 30.0000000  0  7G22G11G19G15G 3G25G14
  21598255.152     4296582.92949   3345590.60846  21598254.350    21598257.465
  23630940.632    -6872370.65849  -4818477.29145  23630939.901    23630945.783
  22181582.355    -3239474.49049  -2509560.83347  22181581.061    22181586.354
  21140817.199     4900500.62249   3821098.47747  21140816.217    21140822.678
  23306954.836     7881703.47449   6138076.98546  23306953.992    23306961.296
  23888384.585    -6748572.75349  -5241389.59245  23888383.846    23888392.975
  20250370.984    -5657815.04649  -4206607.92248  20250370.270    20250374.649
 04  7 13 18  7  0.0000000  0  7G22G11G19G15G 3G25G14
  21607844.342     4346976.88349   3384858.62646  21607843.871    21607847.033
  23613058.813    -6966343.01249  -4891702.45845  23613057.659    23613062.986
  22186395.992    -3214178.53349  -2489849.73047  22186394.818    22186399.905
  21154848.659     4974235.67649   3878554.33547  21154847.564    21154854.023
  23323094.567     7966518.81749   6204166.80946  23323093.817    23323101.244
  23869341.041    -6848647.69949  -5319370.04945  23869340.429    23869349.396
  20251963.878    -5649444.52549  -4200085.42148  20251963.158    20251967.419
 04  7 13 18  7 30.0000000  0  7G22G11G19G15G 3G25G14
  21617464.912     4397532.53549   3424252.60646  21617464.351    21617467.544
  23595210.025    -7060140.43249  -4964791.32245  23595208.656    23595213.480
  22191313.859    -3188336.90649  -2469713.43147  22191312.593    22191317.521
  21168957.978     5048381.24749   3936330.07647  21168956.976    21168963.379
  23339270.207     8051521.44649   6270402.55646  23339269.460    23339276.677
  23850308.308    -6948667.03749  -5397307.18145  23850307.485    23850316.065
  20253652.767    -5640569.28449  -4193169.64248  20253651.989    20253656.315
 04  7 13 18  8  0.0000000  0  7G22G11G19G15G 3G25G14
  21627116.079     4448251.42549   3463773.85846  21627115.649    21627118.998
  23577394.215    -7153758.90349  -5037740.73745  23577393.331    23577398.386
  22196335.547    -3161949.18349  -2449151.58447  22196334.127    22196338.834
  21183145.541     5122938.11749   3994426.33247  21183144.594    21183151.062
  23355481.029     8136710.37449   6336783.48746  23355480.248    23355487.786
  23831287.022    -7048626.31949  -5475197.50045  23831285.884    23831294.326
  20255437.712    -5631188.47649  -4185859.93248  20255437.003    20255441.505
 04  7 13 18  8 30.0000000  0  7G22G11G19G15G 3G25G14
  21636798.830     4499133.87949   3503422.56046  21636798.365    21636801.966
  23559613.057    -7247195.58749  -5110548.45245  23559612.540    23559618.144
  22201461.084    -3135015.96149  -2428164.68947  22201459.519    22201464.030
  21197411.743     5197905.95149   4052842.78547  21197410.678    21197417.018
  23371726.840     8222083.36149   6403307.79746  23371726.110    23371733.557
  23812277.630    -7148521.68449  -5553037.97745  23812276.555    23812284.888
  20257318.980    -5621302.53749  -4178156.59348  20257318.250    20257322.635
 04  7 13 18  9  0.0000000  0  7G22G11G19G15G 3G25G14
  21646512.759     4550179.16749   3543198.08746  21646512.181    21646515.798
  23541867.336    -7340448.96549  -5183213.34845  23541867.034    23541872.800
  22206689.711    -3107539.41249  -2406754.42647  22206688.239    22206692.495
  21211755.431     5273282.78349   4111577.96247  21211754.348    21211760.807
  23388006.851     8307636.95849   6469972.88446  23388006.451    23388013.910
  23793280.353    -7248350.94649  -5630826.94245  23793279.714    23793287.770
  20259296.184    -5610913.21949  -4170061.00548  20259295.411    20259299.662
 04  7 13 18  9 30.0000000  0  7G22G11G19G15G 3G25G14
  21656256.761     4601385.48149   3583099.06646  21656256.217    21656260.094
  23524157.066    -7433518.14349  -5255734.71745  23524156.685    23524162.435
  22212021.166    -3079522.43549  -2384923.02447  22212019.599    22212023.986
  21226176.323     5349065.85149   4170629.67747  21226175.275    21226181.910
  23404320.809     8393366.75349   6536775.26946  23404320.217    23404327.874
  23774296.912    -7348112.85749  -5708563.36845  23774295.549    23774303.824
  20261368.505    -5600023.04649  -4161575.15548  20261367.667    20261372.043
 04  7 13 18 10  0.0000000  0  7G22G11G19G15G 3G25G14
  21666031.650     4652754.51149   3623126.83046  21666031.249    21666035.074
  23506482.858    -7526398.91749  -5328109.27245  23506482.390    23506487.923
  22217455.350    -3050964.52949  -2362670.13347  22217453.967    22217458.396
  21240674.789     5425255.78049   4229998.43047  21240673.757    21240680.467
  23420668.275     8479271.78549   6603714.16846  23420667.409    23420675.406
  23755324.572    -7447802.67949  -5786243.70245  23755324.771    23755333.511
  20263536.213    -5588631.59249  -4152698.69548  20263535.436    20263539.802
 04  7 13 18 10 30.0000000  0  7G22G11G19G15G 3G25G14
  21675837.883     4704284.57549   3663280.04646  21675837.349    21675841.050
  23488844.318    -7619090.55849  -5400336.48845  23488843.743    23488849.430
  22222992.425    -3021868.34949  -2339997.80647  22222990.783    22222995.207
  21255250.256     5501850.09649   4289682.28447  21255249.257    21255255.853
  23437047.318     8565347.74649   6670786.28146  23437046.850    23437055.109
  23736368.733    -7547419.24249  -5863866.89445  23736368.364    23736377.183
  20265798.946    -5576741.20949  -4143433.45848  20265798.120    20265802.438
 04  7 13 18 11  0.0000000  0  7G22G11G19G15G 3G25G14
  21685674.288     4755974.34149   3703557.72246  21685673.671    21685677.050
  23471241.530    -7711591.38949  -5472415.00445  23471241.138    23471247.111
  22228631.122    -2992236.51249  -2316908.08747  22228629.530    22228634.075
  21269902.333     5578846.96249   4349679.81747  21269901.334    21269907.908
  23453459.208     8651590.73649   6737988.52046  23453458.508    23453466.518
  23717426.954    -7646959.94049  -5941430.98245  23717426.657    23717435.025
  20268156.157    -5564354.07549  -4133781.13748  20268155.358    20268159.585
 04  7 13 18 11 30.0000000  0  7G22G11G19G15G 3G25G14
  21695540.807     4807824.90549   3743960.73646  21695540.270    21695543.988
  23453675.977    -7803897.77349  -5544342.04845  23453675.728    23453681.684
  22234371.904    -2962069.03649  -2293401.00847  22234370.156    22234374.672
  21284630.917     5656246.34649   4409991.00247  21284629.898    21284636.517
  23469901.912     8737999.23049   6805319.76346  23469901.415    23469909.555
  23698500.540    -7746420.97449  -6018932.98745  23698499.821    23698507.841
  20270607.984    -5551469.84349  -4123741.46148  20270607.191    20270611.346
 04  7 13 18 12  0.0000000  0  7G22G11G19G15G 3G25G14
  21705438.402     4859836.30349   3784489.07346  21705437.878    21705441.304
  23436148.014    -7896007.79849  -5616116.02545  23436147.723    23436153.574
  22240214.045    -2931367.53749  -2269477.79647  22240212.491    22240216.997
  21299435.742     5734046.88849   4470614.78147  21299434.828    21299441.616
  23486375.976     8824570.49149   6872777.79546  23486375.590    23486383.626
  23679589.391    -7845799.32049  -6096370.57945  23679588.603    23679596.652
  20273154.032    -5538089.87049  -4113315.51548  20273153.188    20273157.485
 04  7 13 18 12 30.0000000  0  7G22G11G19G15G 3G25G14
  21715366.039     4912006.41749   3825141.10147  21715365.485    21715368.912
  23418657.763    -7987920.14149  -5687736.00845  23418657.191    23418663.203
  22246157.385    -2900134.93049  -2245140.71947  22246155.797    22246160.371
  21314316.767     5812245.63549   4531548.83547  21314315.636    21314322.394
  23502880.441     8911300.03749   6940359.19246  23502879.825    23502887.832
  23660694.244    -7945093.65649  -6173742.68545  23660693.433    23660701.614
  20275793.898    -5524216.96049  -4102505.44948  20275793.120    20275797.382
 04  7 13 18 13  0.0000000  0  7G22G11G19G15G 3G25G14
  21725324.131     4964336.42749   3865917.74247  21725323.621    21725327.021
  23401205.681    -8079631.99149  -5759199.74845  23401204.863    23401210.409
  22252201.701    -2868371.57049  -2220390.06647  22252200.222    22252204.891
  21329273.226     5890842.73949   4592793.30647  21329272.162    21329278.910
  23519414.305     8998186.28849   7008062.68246  23519413.788    23519422.080
  23641816.230    -8044300.03649  -6251046.25745  23641815.231    23641823.441
  20278527.791    -5509851.05949  -4091311.22848  20278526.958    20278531.187
 04  7 13 18 13 30.0000000  0  7G22G11G19G15G 3G25G14
  21735312.616     5016825.97749   3906818.67547  21735312.126    21735315.430
  23383792.017    -8171140.90449  -5830505.36045  23383791.089    23383796.686
  22258346.670    -2836079.24649  -2195227.25647  22258345.258    22258350.035
  21344305.298     5969836.63149   4654346.95947  21344304.315    21344310.983
  23535977.341     9085226.02049   7075885.76746  23535977.012    23535985.279
  23622954.968    -8143415.31549  -6328278.85245  23622954.169    23622962.398
  20281355.107    -5494993.68249  -4079734.03848  20281354.251    20281358.417
 04  7 13 18 14  0.0000000  0  7G22G11G19G15G 3G25G14
  21745331.365     5069475.26949   3947844.09747  21745330.861    21745334.319
  23366417.376    -8262444.16149  -5901650.72545  23366416.547    23366422.212
  22264592.192    -2803259.26249  -2169653.27547  22264590.735    22264595.471
  21359412.730     6049226.34049   4716209.03147  21359411.597    21359418.302
  23552569.491     9172416.90049   7143826.65346  23552569.086    23552577.094
  23604111.708    -8242437.00249  -6405438.50345  23604110.915    23604118.985
  20284275.495    -5479645.62149  -4067774.52248  20284274.739    20284279.131
 04  7 13 18 14 30.0000000  0  7G22G11G19G15G 3G25G14
  21755380.520     5122282.78749   3988992.78746  21755380.023    21755383.211
  23349082.488    -8353540.62849  -5972634.90645  23349081.328    23349087.196
  22270937.196    -2769914.34349  -2143670.23247  22270935.932    22270940.872
  21374594.802     6129009.52249   4778377.71447  21374593.896    21374600.783
  23569189.521     9259755.02949   7211882.27046  23569188.970    23569197.119
  23585286.493    -8341363.16249  -6482523.71945  23585285.657    23585293.833
  20287289.079    -5463809.28349  -4055434.50448  20287288.382    20287292.637
 04  7 13 18 15  0.0000000  0  7G22G11G19G15G 3G25G14
  21765459.755     5175248.88249   4030265.05846  21765459.127    21765462.274
  23331787.088    -8444427.24449  -6043455.56045  23331786.329    23331792.214
  22277382.476    -2736045.26549  -2117278.76847  22277380.920    22277385.922
  21389851.895     6209185.75349   4840852.67047  21389850.944    21389857.804
  23585836.782     9347238.16649   7280050.85446  23585836.505    23585844.693
  23566480.197    -8440189.82749  -6559531.40845  23566479.606    23566487.625
  20290395.606    -5447485.16849  -4042714.40548  20290394.802    20290398.995
 04  7 13 18 15 30.0000000  0  7G22G11G19G15G 3G25G14
  21775568.888     5228374.13749   4071661.36846  21775568.408    21775571.774
  23314532.814    -8535101.09949  -6114110.45145  23314532.044    23314537.632
  22283926.913    -2701653.27349  -2090479.85447  22283925.470    22283930.461
  21405183.498     6289754.11449   4903633.18547  21405182.600    21405189.420
  23602511.849     9434863.95149   7348330.61146  23602511.121    23602519.352
  23547693.354    -8538913.69349  -6636458.95545  23547692.981    23547701.105
  20293594.611    -5430674.29149  -4029615.01648  20293593.798    20293598.010
 04  7 13 18 16  0.0000000  0  7G22G11G19G15G 3G25G14
  21785708.296     5281656.28549   4113179.91846  21785707.709    21785710.923
  23297318.753    -8625561.90849  -6184599.36945  23297318.043    23297323.368
  22290570.390    -2666741.94849  -2063276.25647  22290568.880    22290574.061
  21420589.364     6370711.34749   4966716.71647  21420588.275    21420595.112
  23619213.105     9522627.51549   7416717.73445  23619212.239    23619220.181
  23528926.845    -8637533.96749  -6713305.78145  23528925.995    23528934.195
  20296885.573    -5413379.68849  -4016138.71148  20296884.799    20296889.069
 04  7 13 18 16 30.0000000  0  7G22G11G19G15G 3G25G14
  21795877.548     5335096.11249   4154821.32246  21795876.978    21795880.272
  23280145.561    -8715806.43849  -6254919.76645  23280144.921    23280150.389
  22297311.972    -2631312.25949  -2035668.73247  22297310.724    22297315.877
  21436068.884     6452056.97749   5030102.88747  21436067.849    21436074.718
  23635939.716     9610526.96849   7485210.74145  23635938.980    23635947.059
  23510180.676    -8736046.67049  -6790068.76345  23510179.462    23510187.494
  20300268.660    -5395601.92449  -4002285.89748  20300267.857    20300272.072
 04  7 13 18 17  0.0000000  0  7G22G11G19G15G 3G25G14
  21806076.974     5388693.59749   4196585.59346  21806076.378    21806079.562
  23263014.529    -8805832.31249  -6325069.66845  23263013.571    23263019.313
  22304152.231    -2595365.42349  -2007658.22947  22304151.107    22304156.387
  21451622.399     6533790.12249   5093791.01047  21451621.331    21451628.166
  23652691.437     9698559.73249   7553807.61145  23652691.063    23652699.238
  23491454.818    -8834448.79549  -6866745.63645  23491453.995    23491462.169
  20303743.431    -5377341.87549  -3988057.28748  20303742.562    20303746.869
 04  7 13 18 17 30.0000000  0  7G22G11G19G15G 3G25G14
  21816306.025     5442448.27749   4238472.33546  21816305.526    21816308.941
  23245925.338    -8895637.15849  -6395047.42045  23245924.361    23245930.222
  22311090.850    -2558903.62649  -1979246.49847  22311089.654    22311094.620
  21467248.890     6615908.68549   5157779.47447  21467247.943    21467254.711
  23669467.804     9786722.68749   7622505.95245  23669467.718    23669476.030
  23472751.445    -8932737.80649  -6943334.31646  23472750.373    23472758.271
  20307309.585    -5358601.49249  -3973454.38648  20307308.743    20307313.126
 04  7 13 18 18  0.0000000  0  7G22G11G19G15G 3G25G14
  21826565.051     5496359.86949   4280481.32346  21826564.564    21826568.021
  23228878.182    -8985218.82149  -6464851.24945  23228877.464    23228883.254
  22318126.970    -2521928.47949  -1950434.72647  22318125.822    22318130.846
  21482948.776     6698411.47449   5222067.32547  21482947.844    21482954.702
  23686269.014     9875012.71949   7691303.27845  23686269.007    23686276.948
  23454069.899    -9030910.61549  -7019832.46446  23454068.676    23454076.589
  20310966.808    -5339382.07149  -3958478.21748  20310966.051    20310970.447
 04  7 13 18 18 30.0000000  0  7G22G11G19G15G 3G25G14
  21836853.886     5550429.09849   4322613.15346  21836853.351    21836856.898
  23211874.411    -9074574.15749  -6534478.72145  23211873.625    23211879.449
  22325260.837    -2484441.28049  -1921223.94347  22325259.504    22325264.560
  21498721.742     6781297.70149   5286653.95947  21498720.666    21498727.483
  23703093.783     9963427.86449   7760198.14045  23703093.988    23703101.937
  23435410.132    -9128963.76049  -7096237.42846  23435409.564    23435417.405
  20314715.208    -5319684.24949  -3943129.25748  20314714.426    20314718.741
 04  7 13 18 19  0.0000000  0  7G22G11G19G15G 3G25G14
  21847172.779     5604655.45949   4364867.39546  21847172.327    21847175.808
  23194913.837    -9163701.01549  -6603928.20245  23194913.236    23194918.986
  22332491.366    -2446443.95749  -1891615.66047  22332490.258    22332495.307
  21514566.942     6864565.89149   5351538.23847  21514565.846    21514572.821
  23719942.097    10051965.08649   7829188.09445  23719942.086    23719950.097
  23416774.312    -9226894.57849  -7172547.03346  23416773.725    23416781.559
  20318554.382    -5299509.39049  -3927408.58448  20318553.538    20318557.838
 04  7 13 18 19 30.0000000  0  7G22G11G19G15G 3G25G14
  21857521.607     5659038.10349   4407243.47947  21857521.023    21857524.510
  23177997.042    -9252597.65449  -6673198.30345  23177996.617    23178002.109
  22339819.075    -2407938.68249  -1861611.60347  22339817.806    22339822.627
  21530484.509     6948214.19049   5416718.70247  21530483.656    21530490.592
  23736812.943    10140621.18949   7898270.66145  23736812.776    23736820.694
  23398162.312    -9324700.65949  -7248759.44446  23398161.939    23398169.529
  20322483.893    -5278859.82549  -3911318.00648  20322483.087    20322487.394
 04  7 13 18 20  0.0000000  0  7G22G11G19G15G 3G25G14
  21867900.008     5713576.20149   4449740.66946  21867899.448    21867902.645
  23161124.543    -9341262.54949  -6742287.81445  23161124.168    23161129.619
  22347242.399    -2368928.37149  -1831213.97547  22347241.236    22347246.219
  21546474.247     7032240.16549   5482193.45247  21546473.267    21546480.185
  23753705.874    10229392.30149   7967442.89845  23753705.560    23753713.475
  23379574.519    -9422380.00549  -7324873.11046  23379574.117    23379581.615
  20326503.341    -5257737.54849  -3894859.10148  20326502.515    20326506.886
 04  7 13 18 20 30.0000000  0  7G22G11G19G15G 3G25G14
  21878307.573     5768268.69649   4492358.21546  21878306.974    21878310.239
  23144297.029    -9429694.31749  -6811195.63645  23144296.207    23144301.828
  22354761.611    -2329415.62649  -1800424.87047  22354760.441    22354765.400
  21562535.215     7116641.66749   5547960.82047  21562534.388    21562541.319
  23770620.271    10318274.61749   8036701.75645  23770619.712    23770627.329
  23361011.060    -9519930.63349  -7400886.48045  23361010.590    23361018.138
  20330612.274    -5236144.98649  -3878033.71748  20330611.490    20330615.810
 04  7 13 18 21  0.0000000  0  7G22G11G19G15G 3G25G14
  21888744.452     5823116.45249   4535096.73646  21888743.958    21888747.328
  23127514.543    -9517889.23449  -6879918.90445  23127513.425    23127518.883
  22362375.959    -2289401.13949  -1769244.78447  22362374.900    22362379.940
  21578667.794     7201418.10349   5614020.33747  21578666.830    21578673.745
  23787554.414    10407266.25049   8106045.81345  23787554.029    23787561.848
  23342473.238    -9617348.46149  -7476796.34845  23342472.483    23342480.237
  20334810.673    -5214082.34649  -3860842.04648  20334809.835    20334814.185
 04  7 13 18 21 30.0000000  0  7G22G11G19G15G 3G25G14
  21899211.250     5878119.17449   4577955.98746  21899210.712    21899213.771
  23110777.195    -9605845.34649  -6948456.08545  23110776.172    23110781.244
  22370085.564    -2248887.23549  -1737675.55547  22370084.353    22370089.379
  21594871.167     7286567.85649   5680370.75947  21594870.322    21594877.212
  23804509.508    10496364.34849   8175472.81645  23804508.852    23804516.696
  23323960.625    -9714630.78549  -7552600.65445  23323960.269    23323968.110
  20339098.014    -5191551.44849  -3843285.51148  20339097.266    20339101.643
 04  7 13 18 22  0.0000000  0  7G22G11G19G15G 3G25G14
  21909707.343     5933277.06749   4620936.18946  21909706.905    21909710.353
  23094085.315    -9693559.58649  -7016804.81446  23094084.718    23094089.670
  22377889.800    -2207875.35649  -1705718.28047  22377888.621    22377893.565
  21611145.749     7372089.91149   5747011.28347  21611144.785    21611151.486
  23821484.332    10585566.43849   8244980.84645  23821483.420    23821491.228
  23305474.984    -9811774.13849  -7628296.66046  23305474.505    23305482.384
  20343474.552    -5168553.06049  -3825364.67448  20343473.776    20343477.982
 04  7 13 18 22 30.0000000  0  7G22G11G19G15G 3G25G14
  21920233.360     5988591.06349   4664037.95246  21920232.889    21920236.291
  23077440.281    -9781029.26649  -7084962.94845  23077439.701    23077444.683
  22385788.747    -2166366.47449  -1673373.74247  22385787.591    22385792.423
  21627490.757     7457983.57549   5813941.37047  21627489.840    21627496.485
  23838478.411    10674870.76149   8314568.53845  23838477.735    23838485.497
  23287016.295    -9908774.82649  -7703881.50446  23287015.655    23287023.690
  20347939.921    -5145087.94849  -3807080.17248  20347939.055    20347943.293
 04  7 13 18 23  0.0000000  0  7G22G11G19G15G 3G25G14
  21930788.586     6044058.99749   4707259.71146  21930788.131    21930791.786
  23060842.279    -9868253.69749  -7152929.97845  23060841.431    23060846.176
  22393781.699    -2124364.35549  -1640644.85847  22393780.428    22393785.068
  21643905.860     7544245.62649   5881158.51847  21643904.946    21643911.704
  23855491.507    10764272.64249   8384232.25845  23855490.458    23855498.234
  23268584.821   -10005631.90349  -7779354.45646  23268584.344    23268592.172
  20352493.260    -5121159.66149  -3788434.75348  20352492.463    20352496.671
 04  7 13 18 23 30.0000000  0  7G22G11G19G15G 3G25G14
  21941373.237     6099679.93949   4750600.66346  21941372.624    21941376.219
  23044291.407    -9955230.80849  -7220704.33445  23044290.400    23044294.903
  22401867.888    -2081871.72049  -1607533.74447  22401866.650    22401870.961
  21660390.609     7630873.77349   5948660.94647  21660389.794    21660396.559
  23872521.570    10853768.43049   8453969.16045  23872520.898    23872528.996
  23250182.053   -10102343.21049  -7854713.80346  23250180.855    23250188.502
  20357134.486    -5096770.15649  -3769429.95348  20357133.669    20357137.953
 04  7 13 18 24  0.0000000  0  7G22G11G19G15G 3G25G14
  21951986.679     6155454.82649   4794061.60546  21951985.987    21951989.623
  23027787.791   -10041957.20749  -7288283.31445  23027786.816    23027791.358
  22410047.663    -2038889.14049  -1574040.86547  22410046.128    22410050.357
  21676945.347     7717867.70049   6016448.37147  21676944.294    21676951.009
  23889569.663    10943356.45149   8523777.90245  23889569.005    23889577.051
  23231806.438   -10198904.48249  -7929956.26846  23231805.596    23231813.406
  20361863.447    -5071919.93249  -3750066.13448  20361862.546    20361866.788
 04  7 13 18 24 30.0000000  0  7G22G11G19G15G 3G25G14
  21962629.691     6211384.93449   4837643.50746  21962629.098    21962632.763
  23011332.282   -10128429.51149  -7355664.23845  23011331.367    23011336.252
  22418319.873    -1995417.54249  -1540166.91747  22418318.551    22418322.683
  21693569.259     7805227.21349   6084520.68647  21693568.275    21693575.076
  23906635.359    11033035.30349   8593657.48045  23906634.531    23906642.586
  23213460.543   -10295311.64949  -8005078.61646  23213459.817    23213467.649
  20366679.736    -5046609.07449  -3730343.37648  20366678.942    20366683.202
 04  7 13 18 25  0.0000000  0  7G22G11G19G15G 3G25G14
  21973302.339     6267468.13649   4881344.69846  21973301.569    21973305.113
  22994925.359   -10214647.22249  -7422846.84245  22994924.675    22994929.357
  22426684.244    -1951461.01049  -1505915.11847  22426683.240    22426687.423
  21710262.203     7892948.83649   6152875.15547  21710261.049    21710267.939
  23923716.848    11122800.00249   8663603.90345  23923716.167    23923724.463
  23195144.609   -10391564.12349  -8080080.43446  23195143.706    23195151.333
  20371583.198    -5020841.06649  -3710264.42348  20371582.417    20371586.769
 04  7 13 18 25 30.0000000  0  7G22G11G19G15G 3G25G14
  21984003.914     6323704.42449   4925165.17146  21984003.121    21984006.627
  22978567.798   -10300608.04949  -7489829.28645  22978566.860    22978571.391
  22435140.950    -1907021.60749  -1471287.05547  22435139.756    22435144.247
  21727023.554     7981031.13849   6221510.67647  21727022.506    21727029.524
  23940814.139    11212647.90649   8733615.16445  23940813.439    23940821.963
  23176858.299   -10487658.44849  -8154959.05746  23176857.386    23176865.050
  20376573.467    -4994617.34749  -3689830.34848  20376572.672    20376576.973
 04  7 13 18 26  0.0000000  0  7G22G11G19G15G 3G25G14
  21994734.891     6380094.44749   4969105.44046  21994734.063    21994737.394
  22962259.161   -10386308.58449  -7556608.88945  22962258.400    22962263.205
  22443688.873    -1862100.44449  -1436283.59147  22443687.859    22443692.726
  21743853.716     8069473.35349   6290426.63847  21743852.664    21743859.504
  23957927.129    11302577.14749   8803689.85245  23957926.562    23957935.013
  23158602.652   -10583591.10649  -8229711.65546  23158601.964    23158609.636
  20381650.219    -4967938.87449  -3669041.91848  20381649.418    20381653.666
 04  7 13 18 26 30.0000000  0  7G22G11G19G15G 3G25G14
  22005494.216     6436637.49149   5013164.88446  22005493.573    22005496.944
  22946001.024   -10471747.08749  -7623184.35045  22946000.065    22946004.741
  22452328.259    -1816700.28049  -1400906.87947  22452327.257    22452332.190
  21760751.736     8158273.27449   6359621.34347  21760750.776    21760757.505
  23975055.707    11392584.36749   8873825.24445  23975054.605    23975063.048
  23140378.369   -10679359.70949  -8304336.44546  23140377.620    23140385.305
  20386813.034    -4940807.78049  -3647900.80448  20386812.204    20386816.522
 04  7 13 18 27  0.0000000  0  7G22G11G19G15G 3G25G14
  22016283.027     6493333.07149   5057343.20146  22016282.365    22016285.743
  22929792.972   -10556921.65249  -7689554.12445  22929791.897    22929796.754
  22461058.483    -1770823.56649  -1365158.83947  22461057.254    22461062.357
  21777717.517     8247428.78249   6429093.13747  21777716.540    21777723.382
  23992197.048    11482665.86149   8944018.54845  23992196.498    23992205.104
  23122185.785   -10774961.74049  -8378831.45646  23122185.224    23122192.474
  20392061.566    -4913226.06649  -3626408.56948  20392060.800    20392065.213
 04  7 13 18 27 30.0000000  0  7G22G11G19G15G 3G25G14
  22027100.999     6550181.90249   5101640.91846  22027100.435    22027103.633
  22913635.124   -10641828.80049  -7755715.49145  22913634.142    22913639.700
  22469878.977    -1724471.46749  -1329040.35147  22469877.787    22469883.061
  21794751.015     8336939.37249   6498841.59447  21794749.909    21794756.599
  24009353.108    11572820.02749   9014268.44745  24009352.221    24009360.882
  23104026.073   -10870393.46949  -8453193.73645  23104025.097    23104032.122
  20397395.846    -4885194.27949  -3604565.61648  20397395.067    20397399.533
 04  7 13 18 28  0.0000000  0  7G22G11G19G15G 3G25G14
  22037947.995     6607183.09649   5146057.42847  22037947.426    22037950.843
  22897528.906   -10726467.05249  -7821667.31146  22897527.831    22897533.569
  22478789.662    -1677646.92549  -1292553.73147  22478788.468    22478793.408
  21811851.371     8426802.68749   6568864.91247  21811850.321    21811857.112
  24026522.285    11663043.17649   9084572.14345  24026521.314    24026529.639
  23085898.724   -10965652.58149  -8527421.53445  23085897.815    23085904.509
  20402815.297    -4856714.66649  -3582373.70348  20402814.545    20402818.929
 04  7 13 18 28 30.0000000  0  7G22G11G19G15G 3G25G14
  22048823.984     6664335.81049   5190592.03847  22048823.358    22048826.786
  22881474.753   -10810834.80249  -7887408.35446  22881473.454    22881478.727
  22487789.784    -1630352.87249  -1255701.26247  22487788.438    22487792.918
  21829018.148     8517016.18049   6639161.10746  21829017.286    21829024.119
  24043703.932    11753332.00849   9154927.01945  24043702.980    24043710.817
  23067804.762   -11060737.06449  -8601513.27646  23067803.792    23067810.582
  20408319.563    -4827789.75049  -3559834.80848  20408318.815    20408323.197
 04  7 13 18 29  0.0000000  0  7G22G11G19G15G 3G25G14
  22059728.567     6721640.62849   5235245.14247  22059727.998    22059731.612
  22865472.268   -10894929.03449  -7952936.32146  22865471.123    22865476.050
  22496878.581    -1582590.79949  -1218484.09947  22496877.316    22496881.765
  21846251.760     8607579.02549   6709729.50146  21846250.935    21846257.630
  24060896.946    11843684.34549   9225331.31745  24060896.518    24060904.321
  23049744.430   -11155643.43849  -8675466.21046  23049743.704    23049750.632
  20413908.494    -4798420.47849  -3536949.66948  20413907.696    20413912.047
 04  7 13 18 29 30.0000000  0  7G22G11G19G15G 3G25G14
  22070662.286     6779098.04349   5280017.14047  22070661.729    22070665.443
  22849522.403   -10978746.58149  -8018248.64746  22849521.345    22849526.103
  22506056.318    -1534362.24949  -1180903.44547  22506054.843    22506059.428
  21863551.630     8698490.21949   6780569.35846  21863550.769    21863557.690
  24078102.037    11934098.13349   9295783.57645  24078101.617    24078109.621
  23031718.774   -11250368.08549  -8749277.54346  23031718.163    23031725.349
  20419581.568    -4768607.94449  -3513719.12248  20419580.798    20419585.135
 04  7 13 18 30  0.0000000  0  7G22G11G19G15G 3G25G14
  22081624.859     6836706.59049   5324906.91047  22081624.270    22081628.058
  22833625.171   -11062286.64049  -8083344.76746  22833624.161    22833628.899
  22515321.730    -1485670.82249  -1142962.12446  22515320.348    22515325.117
  21880917.205     8789746.59649   6851678.14446  21880916.427    21880923.182
  24095318.477    12024568.90249   9366280.21345  24095317.938    24095325.835
  23013728.160   -11344909.59649  -8822946.16846  23013727.378    23013734.550
  20425338.334    -4738355.06049  -3490145.43948  20425337.603    20425341.903
 04  7 13 18 30 30.0000000  0  7G22G11G19G15G 3G25G14
  22092616.169     6894465.96749   5369914.17947  22092615.601    22092619.251
  22817781.017   -11145546.80849  -8148222.79146  22817780.120    22817785.113
  22524675.030    -1436518.73649  -1104661.85246  22524673.504    22524678.422
  21898347.908     8881346.39149   6923054.58746  21898347.199    21898354.103
  24112545.586    12115094.16149   9436819.28945  24112544.433    24112552.263
  22995772.906   -11439265.24749  -8896469.97346  22995772.088    22995779.207
  20431178.735    -4707663.36949  -3466229.82648  20431178.080    20431182.356
 04  7 13 18 31  0.0000000  0  7G22G11G19G15G 3G25G14
  22103636.209     6952377.79049   5415040.30246  22103635.652    22103639.532
  22801990.613   -11228523.22849  -8212879.69146  22801989.981    22801995.423
  22534115.510    -1386906.73249  -1066003.19446  22534114.168    22534119.355
  21915844.388     8973289.76649   6994698.72446  21915843.478    21915850.603
  24129781.509    12205672.46949   9507399.72345  24129780.661    24129788.891
  22977853.827   -11533430.40649  -8969845.32546  22977853.183    22977860.157
  20437102.702    -4676533.03449  -3441972.42848  20437102.019    20437106.361
 04  7 13 18 31 30.0000000  0  7G22G11G19G15G 3G25G14
  22114685.570     7010442.75149   5460285.69347  22114685.042    22114688.988
  22786255.138   -11311212.55849  -8277312.89246  22786254.625    22786260.117
  22543643.289    -1336836.10249  -1026987.14946  22543642.271    22543647.712
  21933405.565     9065575.84749   7066609.90546  21933404.849    21933412.085
  24147026.490    12296301.91549   9578019.99345  24147026.622    24147035.506
  22959971.797   -11627401.40849  -9043069.40046  22959971.023    22959978.000
  20443109.937    -4644964.94349  -3417373.92448  20443109.200    20443113.625
 04  7 13 18 32  0.0000000  0  7G22G11G19G15G 3G25G14
  22125763.383     7068657.44449   5505647.72547  22125762.972    22125766.918
  22770574.388   -11393615.45349  -8341522.92446  22770573.760    22770579.041
  22553257.741    -1286312.46149   -987618.13246  22553256.655    22553262.144
  21951031.410     9158199.72449   7138784.30846  21951030.668    21951037.873
  24164282.352    12386976.53549   9648675.44145  24164281.615    24164290.145
  22942126.429   -11721178.49349  -9116142.34946  22942125.678    22942132.710
  20449199.503    -4612963.92449  -3392438.05448  20449198.784    20449203.183
 04  7 13 18 32 30.0000000  0  7G22G11G19G15G 3G25G14
  22136869.922     7127022.26849   5551126.77647  22136869.484    22136873.379
  22754948.521   -11475729.32849  -8405507.72146  22754947.948    22754953.282
  22562958.056    -1235337.58749   -947897.48246  22562956.970    22562962.567
  21968721.121     9251159.98149   7211220.83346  21968720.401    21968727.638
  24181546.079    12477694.17149   9719364.43845  24181544.854    24181553.263
  22924318.345   -11814758.18949  -9189061.50046  22924317.925    22924324.924
  20455371.221    -4580531.29549  -3367165.86548  20455370.482    20455374.876
 04  7 13 18 33  0.0000000  0  7G22G11G19G15G 3G25G14
  22148005.160     7185538.03249   5596723.46147  22148004.755    22148008.515
  22739378.143   -11557551.14449  -8469264.94346  22739377.587    22739383.031
  22572743.645    -1183913.15749   -907826.53146  22572742.595    22572748.187
  21986474.940     9344455.83049   7283918.83446  21986474.130    21986481.228
  24198816.090    12568452.41849   9790085.05245  24198815.339    24198824.356
  22906549.324   -11908136.99949  -9261824.08946  22906548.547    22906555.181
  20461624.974    -4547668.22049  -3341558.27548  20461624.232    20461628.533
 04  7 13 18 33 30.0000000  0  7G22G11G19G15G 3G25G14
  22159169.175     7244204.32949   5642437.47346  22159168.567    22159172.297
  22723863.517   -11639078.78449  -8532792.93046  22723863.108    22723868.776
  22582614.483    -1132041.62949   -867407.21546  22582613.353    22582618.987
  22004292.204     9438085.29249   7356876.80246  22004291.276    22004298.227
  24216094.141    12659248.50549   9860835.16345  24216093.137    24216102.302
  22888818.586   -12001312.05949  -9334427.93646  22888817.851    22888824.397
  20467960.246    -4514376.36249  -3315616.56148  20467959.457    20467963.707
 04  7 13 18 34  0.0000000  0  7G22G11G19G15G 3G25G14
  22170361.514     7303020.77049   5688268.49147  22170361.068    22170364.831
  22708405.525   -11720309.87049  -8596089.83746  22708405.218    22708410.976
  22592569.359    -1079725.62649   -826641.52746  22592568.580    22592574.528
  22022172.162     9532046.32549   7430093.15646  22022171.288    22022178.380
  24233379.603    12750079.74549   9931612.65945  24233378.191    24233386.942
  22871127.066   -12094280.70949  -9406870.94446  22871126.399    22871132.937
  20474376.640    -4480657.68949  -3289342.27048  20474375.815    20474380.218
 04  7 13 18 34 30.0000000  0  7G22G11G19G15G 3G25G14
  22181582.331     7361986.17449   5734215.55547  22181581.791    22181585.653
  22693004.753   -11801243.22749  -8659154.76146  22693004.399    22693009.903
  22602608.969    -1026968.63349   -785532.22946  22602608.020    22602613.929
  22040115.314     9626336.25649   7503565.76446  22040114.287    22040121.225
  24250670.129    12840941.95049  10002414.28245  24250668.810    24250677.436
  22853475.053   -12187041.73749  -9479152.16746  22853474.430    22853481.028
  20480873.737    -4446515.05849  -3262737.61348  20480872.957    20480877.367
 04  7 13 18 35  0.0000000  0  7G22G11G19G15G 3G25G14
  22192831.412     7421101.02049   5780279.03347  22192830.913    22192834.846
  22677661.523   -11881876.25349  -8721985.66346  22677660.792    22677665.940
  22612732.186     -973772.40549   -744080.67846  22612731.092    22612736.970
  22058120.221     9720953.69249   7577293.60846  22058119.401    22058126.281
  24267966.118    12931833.01149  10073238.41545  24267964.787    24267973.555
  22835863.161   -12279591.74049  -9551268.97346  22835862.611    22835869.247
  20487451.358    -4411949.69549  -3235803.57448  20487450.533    20487454.917
 04  7 13 18 35 30.0000000  0  7G22G11G19G15G 3G25G14
  22204109.001     7480365.27349   5826458.90547  22204108.465    22204112.421
  22662375.563   -11962206.14049  -8784580.35246  22662374.594    22662379.484
  22622938.589     -920139.32549   -702288.72846  22622937.426    22622943.174
  22076187.753     9815897.08549   7651275.41146  22076186.674    22076193.469
  24285267.979    13022750.27849  10144082.91845  24285266.160    24285274.567
  22818292.637   -12371927.55749  -9623218.84046  22818291.865    22818298.473
  20494109.165    -4376963.12049  -3208541.29748  20494108.364    20494112.603
 04  7 13 18 36  0.0000000  0  7G22G11G19G15G 3G25G14
  22215415.217     7539779.36449   5872755.54347  22215414.698    22215418.665
  22647147.292   -12042230.00449  -8846936.58746  22647146.526    22647151.222
  22633227.575     -866071.35249   -660157.89946  22633226.303    22633232.103
  22094316.582     9911165.13349   7725510.20746  22094315.683    22094322.609
  24302573.276    13113691.28449  10214945.98445  24302571.769    24302580.231
  22800763.218   -12464045.65749  -9694999.09246  22800762.351    22800768.897
  20500846.793    -4341556.78049  -3180951.94548  20500845.990    20500850.226
 04  7 13 18 36 30.0000000  0  7G22G11G19G15G 3G25G14
  22226749.984     7599343.80149   5919169.35047  22226749.452    22226753.499
  22631977.848   -12121944.91049  -8909052.06746  22631977.109    22631982.071
  22643599.074     -811570.02049   -617689.40246  22643597.524    22643603.496
  22112507.132    10006756.62549   7799997.01946  22112506.141    22112513.106
  24319882.853    13204654.28449  10285826.10545  24319881.248    24319890.089
  22783275.758   -12555942.75449  -9766607.11446  22783274.818    22783281.425
  20507663.956    -4305731.74649  -3153036.35048  20507663.180    20507667.562
 04  7 13 18 37  0.0000000  0  7G22G11G19G15G 3G25G14
  22238113.440     7659058.26049   5965700.07547  22238112.944    22238116.810
  22616867.276   -12201348.99249  -8970925.38646  22616866.849    22616872.111
  22654051.657     -756638.21049   -574885.48346  22654050.597    22654056.661
  22130758.607    10102669.49249   7874734.23046  22130757.785    22130764.737
  24337195.752    13295635.85549  10356720.67645  24337194.540    24337203.459
  22765830.400   -12647616.34549  -9838041.04446  22765829.714    22765836.544
  20514560.558    -4269489.82749  -3124795.91548  20514559.796    20514564.181
